GFSCGP_500_spd_003.txt.gz
Wind_Speed
20 19 18 11 4 5 8 14 12 10 3 2 7 12 17 19 13 14 14 17 22 27 28 31 31 33 33 32 39 44 43 44 46 49 42 41 53 52 55 55 53 53 55 57
14 4 8 8 5 7 14 19 17 12 5 7 10 17 16 17 15 18 16 18 22 26 27 29 31 34 34 37 42 46 45 46 47 42 46 49 48 54 56 54 54 56 57 60
6 10 8 6 6 8 13 15 13 8 1 6 6 16 17 19 19 18 16 20 20 23 26 29 31 34 38 41 43 45 47 48 48 47 47 50 53 51 51 54 56 58 61 63
9 8 8 7 6 9 6 8 9 8 7 10 9 14 22 26 25 25 23 25 29 26 28 30 33 38 41 42 41 42 44 46 46 48 46 50 51 53 54 58 60 63 64 67
4 5 6 5 9 10 6 11 11 11 11 13 14 11 23 29 37 32 21 26 23 31 37 38 34 34 35 36 37 39 39 39 41 44 47 50 52 56 58 61 65 68 71 75
6 6 8 9 10 11 12 13 13 14 15 13 11 18 30 30 30 35 35 29 32 43 42 41 40 36 35 34 36 39 40 42 43 45 47 50 53 58 62 65 68 72 76 79
6 7 7 7 9 10 12 12 13 15 12 12 11 20 24 27 33 37 37 41 42 41 43 43 45 42 35 33 35 36 39 42 47 50 54 57 62 67 70 74 77 79 81 82
8 6 4 4 3 2 2 1 4 6 10 9 11 21 22 25 30 33 36 43 40 39 35 44 42 42 38 35 34 37 39 41 45 51 56 61 66 71 72 76 79 80 80 80
6 5 3 1 1 2 3 5 7 8 9 9 16 21 24 27 30 37 38 40 39 42 33 34 33 34 34 34 36 40 44 49 55 61 66 72 76 79 81 82 82 81 80 80
3 2 2 2 4 4 5 9 11 12 12 8 14 24 29 33 36 40 41 42 44 38 32 33 34 36 39 42 45 47 53 59 65 69 73 76 79 82 84 81 80 82 83 82
5 5 4 4 4 5 9 12 15 18 17 16 10 21 30 34 36 38 35 34 31 32 31 31 33 37 41 45 49 55 61 66 70 73 77 80 82 84 84 80 81 82 82 81
6 4 3 2 4 7 10 13 16 19 20 20 18 12 28 30 31 25 27 32 31 30 31 33 37 40 45 49 54 59 64 69 72 75 78 80 82 81 82 81 81 82 81 77
4 2 1 0 2 5 11 16 20 23 22 22 19 19 25 29 27 27 32 29 28 32 36 39 42 44 47 53 57 63 67 71 76 80 83 85 84 83 86 87 91 90 84 77
3 4 5 5 8 11 16 20 24 26 27 24 21 22 25 34 32 27 27 33 37 40 41 43 46 50 56 61 66 68 72 77 81 85 87 85 85 86 90 90 89 81 62 70
7 8 9 9 12 16 19 21 23 25 29 31 24 26 30 33 33 32 33 38 41 43 46 48 53 58 63 65 69 73 76 81 84 85 87 86 87 89 87 84 79 55 63 67
12 13 13 13 15 19 21 25 27 28 29 31 29 32 34 29 29 33 38 41 42 45 49 53 58 62 65 70 73 77 81 84 85 87 87 88 89 86 79 73 50 57 71 61
16 16 16 17 20 23 27 29 31 32 33 36 35 37 34 32 35 38 39 39 43 46 53 57 61 65 69 73 78 83 85 87 87 87 87 89 89 83 72 67 51 59 66 54
19 20 20 22 25 28 31 33 34 36 36 38 39 38 38 39 42 42 42 44 49 54 59 62 65 70 74 79 82 85 85 85 87 87 89 89 85 73 67 59 48 51 50 51
22 24 26 28 30 32 36 38 36 39 39 38 40 41 42 43 44 45 47 51 56 60 62 66 69 73 76 78 82 84 86 87 88 89 89 81 72 66 59 50 39 41 42 32
27 29 30 33 35 38 42 44 43 43 40 41 39 40 41 41 43 45 49 53 57 60 62 66 71 75 79 82 84 85 87 87 88 89 83 72 66 57 47 36 34 32 26 28
32 33 35 37 39 40 42 46 44 43 46 46 43 45 46 46 47 49 54 57 59 62 67 72 76 79 82 84 85 87 88 88 89 84 72 66 55 45 34 26 23 25 23 30
36 38 38 41 43 45 47 48 47 46 49 48 47 48 50 51 50 52 55 58 62 67 71 75 78 81 82 84 85 87 88 89 82 74 65 54 45 34 27 28 29 23 26 31
41 41 42 44 46 48 52 51 51 52 53 50 51 53 55 54 54 56 59 63 68 72 73 77 79 79 81 84 86 87 88 82 74 66 57 46 38 30 27 29 29 25 28 32
43 45 47 50 50 52 57 55 53 54 53 52 53 55 57 56 57 59 64 69 72 73 76 77 77 79 82 85 85 87 85 74 67 57 48 40 32 27 30 31 28 26 28 33
40 45 46 50 50 53 54 53 56 55 53 55 58 58 57 57 61 64 68 71 72 73 73 75 77 80 82 83 84 84 79 68 56 50 40 33 28 27 30 30 27 26 28 33
40 46 48 49 50 53 51 54 54 53 56 58 58 57 57 60 63 67 70 71 72 71 72 74 77 80 81 82 81 79 71 59 49 40 33 29 26 27 28 28 27 28 30 33

GFSCGP_500_spd_006.txt.gz
Wind_Speed
24 25 25 24 18 15 6 3 6 6 3 6 13 13 13 7 6 7 10 13 16 19 21 22 23 26 29 29 33 41 41 41 49 46 40 37 40 42 47 50 49 50 51 52
22 21 21 19 14 10 10 8 7 6 4 8 17 15 14 17 13 12 11 10 16 22 23 25 26 27 26 37 40 42 43 45 44 36 40 43 45 47 47 46 52 55 57 58
15 13 15 12 10 10 17 14 12 8 4 8 11 12 15 17 18 14 10 13 19 23 20 18 23 28 35 39 40 42 43 43 44 45 45 47 45 45 48 52 55 59 61 64
12 12 10 8 8 7 9 18 19 12 8 12 15 17 21 24 22 22 19 16 17 23 17 19 28 35 37 38 39 42 44 45 45 45 44 44 46 48 51 54 58 61 65 69
11 12 11 11 11 10 11 13 16 15 14 14 18 23 26 28 27 24 21 18 16 27 26 29 37 37 37 37 39 39 40 41 43 42 43 45 47 51 54 58 62 66 69 73
12 12 11 11 12 11 11 12 13 15 14 14 20 23 29 28 27 27 25 27 29 34 33 33 35 38 39 42 36 36 39 39 38 41 42 44 48 53 58 62 66 70 72 76
10 10 10 10 11 13 12 13 15 16 16 17 17 23 28 31 31 30 28 32 35 35 39 35 37 41 41 32 29 33 36 39 41 41 43 48 54 59 63 67 72 76 82 85
11 9 9 9 8 6 6 5 6 8 9 12 17 22 24 28 31 34 37 30 29 33 38 42 43 41 35 28 27 27 30 33 39 46 53 58 64 67 72 75 77 82 84 87
9 9 8 7 5 4 2 1 2 4 7 13 18 22 26 28 31 33 31 28 37 43 45 31 35 33 32 31 32 34 37 43 50 56 63 67 70 75 79 81 84 85 86 86
10 8 6 7 7 5 2 2 3 6 6 11 15 19 24 27 32 34 37 38 40 36 29 33 31 30 33 37 39 42 48 53 58 64 69 72 76 80 84 86 88 87 86 85
10 10 8 7 6 3 3 4 6 10 12 13 16 18 22 27 30 31 30 28 28 29 35 34 34 38 41 44 45 49 54 59 64 68 71 75 80 83 85 86 85 84 86 86
10 9 9 7 4 2 1 5 8 10 12 14 17 19 23 27 30 30 30 31 29 32 38 39 41 44 46 47 50 54 59 65 68 70 74 79 84 87 88 89 87 88 89 87
10 8 6 5 4 3 3 7 10 13 15 17 18 21 25 24 25 27 31 32 30 31 38 42 43 47 49 50 54 58 64 67 70 74 79 84 87 90 90 89 89 89 88 82
11 8 6 6 6 6 10 11 12 15 17 19 21 22 28 26 27 29 29 30 31 37 42 43 47 49 50 54 59 64 67 71 76 80 84 86 88 88 89 90 91 89 78 72
12 10 9 8 10 12 13 15 19 20 23 24 25 27 25 22 23 26 31 35 38 40 42 45 48 51 55 59 63 66 70 75 80 83 85 88 89 89 91 93 91 80 72 66
15 14 13 13 13 15 17 18 21 24 27 29 31 32 32 32 33 34 36 38 40 41 43 46 51 56 60 62 64 69 74 78 82 85 87 90 90 91 94 92 84 73 65 58
19 18 18 18 19 21 22 23 25 29 29 31 34 36 38 38 36 36 37 38 40 42 46 50 55 60 62 64 68 73 76 80 84 86 87 89 89 93 93 83 71 60 54 41
22 22 22 22 24 25 27 26 30 32 32 35 37 38 40 40 39 41 42 42 44 47 50 53 58 60 63 67 72 75 78 81 83 84 87 89 93 92 83 69 58 50 41 32
26 25 25 26 27 29 31 31 34 35 36 39 40 44 44 44 44 45 46 47 48 50 52 56 58 61 66 70 73 75 79 81 82 86 89 91 90 83 69 57 46 36 27 27
29 29 30 30 32 34 34 35 36 38 39 41 43 45 44 44 46 47 49 50 52 52 55 58 61 65 68 71 74 78 80 81 85 87 89 89 81 71 58 47 37 29 30 31
33 34 35 35 37 37 39 40 41 42 43 48 49 48 48 48 48 48 51 52 51 53 57 60 65 67 71 75 79 79 80 84 87 87 89 83 73 59 49 39 32 30 32 34
38 40 38 40 40 41 41 43 44 45 45 49 52 49 50 52 51 53 53 50 53 56 60 64 67 72 76 79 79 78 82 85 84 86 84 74 61 51 42 33 28 30 34 33
39 40 42 41 40 41 44 45 46 46 48 55 54 53 55 53 54 56 54 54 57 61 64 68 72 76 77 76 77 81 84 83 83 81 76 66 53 44 35 29 29 32 34 31
41 43 44 43 41 42 45 46 50 52 57 60 56 55 56 55 57 57 57 58 62 66 69 73 75 75 73 74 78 81 81 83 81 74 69 58 46 37 31 28 28 31 31 30
38 44 43 47 45 47 46 47 51 56 60 57 55 56 55 56 57 58 59 61 65 70 74 75 74 72 72 77 79 79 81 80 74 68 61 51 38 32 29 29 29 31 32 31
34 39 41 41 42 43 43 47 52 55 56 55 55 54 57 59 59 60 63 68 71 73 74 73 70 71 76 78 78 82 79 75 67 60 52 43 32 29 29 29 30 31 33 31

GFSCGP_500_spd_012.txt.gz
Wind_Speed
21 17 13 12 11 12 21 17 16 14 17 17 13 10 10 10 8 7 8 7 7 9 12 14 18 21 21 21 23 27 28 29 37 42 49 49 46 41 44 45 48 51 50 47
16 19 15 14 19 20 25 21 15 19 17 12 6 7 6 4 4 4 5 5 7 11 15 18 20 20 21 26 30 29 35 41 44 47 49 49 49 48 48 46 45 45 46 47
20 19 22 25 27 23 21 24 18 11 9 8 6 8 6 5 6 6 9 10 13 18 17 19 18 20 24 30 36 36 39 41 42 47 48 43 41 42 42 43 44 45 48 53
21 21 25 27 24 22 21 20 21 14 13 13 14 14 11 12 13 14 14 16 19 20 21 27 21 25 30 32 34 37 38 44 46 46 42 41 41 42 42 44 46 50 55 60
15 19 23 23 22 21 19 19 15 14 15 18 18 19 17 17 19 20 21 21 22 24 25 26 29 32 35 34 37 34 49 48 46 44 44 42 41 43 47 50 53 56 59 63
17 13 20 22 17 15 14 15 15 15 16 19 17 20 20 21 21 23 23 23 25 26 27 27 31 36 41 37 44 48 41 42 43 41 40 42 45 47 49 53 57 62 65 68
16 14 17 19 17 16 17 17 16 18 19 20 20 24 23 23 21 21 24 27 28 30 29 25 27 37 41 41 46 41 41 42 40 41 45 47 50 53 56 60 64 67 69 75
16 16 18 18 18 17 16 16 17 19 20 20 21 18 15 15 17 21 23 24 25 23 23 23 30 34 36 40 41 42 42 41 44 49 52 53 53 55 59 63 66 69 74 79
17 16 15 15 16 16 16 16 14 12 12 12 11 8 6 4 5 8 10 12 15 18 20 24 28 33 37 40 40 43 43 43 46 49 49 51 55 59 62 64 68 72 77 81
16 15 13 12 12 12 11 10 8 7 7 4 2 3 6 5 7 9 12 15 18 21 24 27 30 32 34 37 40 42 46 50 52 53 54 57 60 63 64 69 73 77 83 87
15 15 14 13 12 12 11 9 7 5 5 5 5 6 7 10 12 13 16 18 21 24 26 29 32 34 36 39 43 46 49 53 56 57 60 62 64 66 69 74 77 82 88 91
13 16 15 13 13 12 10 9 8 7 8 9 9 8 12 14 15 17 20 23 26 29 32 35 38 40 42 45 48 50 53 55 58 61 63 65 67 69 73 76 81 86 88 91
15 15 16 15 14 12 12 10 9 10 11 11 13 14 16 16 18 19 23 26 31 35 37 39 41 43 44 46 49 52 54 57 63 63 64 65 68 72 75 79 84 86 90 93
17 15 15 15 15 15 13 13 14 15 16 17 19 19 20 20 21 23 27 30 33 36 39 42 44 45 47 49 51 55 59 60 61 62 64 67 72 75 78 83 85 88 91 97
17 17 17 16 16 16 17 17 19 21 21 23 23 23 26 25 26 28 30 34 37 39 42 44 46 48 50 51 54 59 59 59 59 62 66 71 74 79 81 83 87 90 95 96
20 19 19 20 19 20 21 21 23 25 27 28 29 28 30 31 32 33 35 38 40 42 45 47 50 52 51 54 57 58 58 58 60 64 69 74 78 80 82 86 88 95 97 92
22 23 24 25 25 27 27 24 28 30 31 33 33 34 35 34 35 36 38 40 42 44 47 50 54 55 55 56 58 58 57 60 63 69 73 76 79 81 85 89 95 97 90 83
24 27 30 30 31 35 28 29 32 36 37 36 36 39 40 40 39 40 42 43 44 48 50 53 55 55 54 57 58 57 60 64 69 73 75 79 81 84 87 93 94 90 83 72
26 29 32 34 35 37 36 33 37 40 40 38 42 44 45 44 44 42 46 45 48 50 52 53 54 53 55 58 58 59 64 68 72 75 80 82 83 85 92 92 88 83 72 62
25 30 34 37 40 42 40 38 41 44 46 42 46 46 47 47 48 47 48 49 52 54 53 53 54 54 57 59 60 63 67 70 74 79 80 81 84 91 92 87 83 72 63 53
29 32 34 37 42 44 43 44 44 47 47 50 50 49 50 49 51 49 49 51 55 55 55 55 55 57 59 61 63 66 69 74 78 79 80 83 91 93 87 81 72 63 54 44
31 34 36 39 42 45 43 45 46 48 49 50 50 50 50 51 51 50 51 54 57 58 56 56 58 59 61 64 66 69 73 77 79 78 81 90 92 88 80 71 62 53 46 37
37 36 39 41 41 43 46 47 48 48 48 48 49 50 50 50 51 52 56 57 58 58 59 59 59 61 65 68 70 72 76 79 77 80 89 90 88 80 70 62 53 46 39 34
40 41 42 41 39 42 46 48 46 47 47 47 47 48 49 50 53 56 58 59 59 60 60 59 60 65 67 71 73 75 78 75 80 87 89 88 81 69 62 54 46 40 36 33
41 39 38 42 39 43 43 42 44 45 45 45 47 48 50 53 55 56 57 58 58 59 59 60 64 66 70 73 75 78 73 79 85 86 85 79 68 62 56 46 39 36 32 29
31 36 39 42 40 42 40 40 40 41 42 46 49 51 54 56 55 55 56 56 57 59 59 62 66 68 72 74 77 73 79 83 84 82 76 67 62 59 50 40 35 32 32 32

GFSCGP_500_spd_015.txt.gz
Wind_Speed
16 20 24 15 10 8 7 14 12 11 12 12 9 7 8 9 9 12 13 12 11 13 13 13 14 16 18 19 20 22 23 28 34 38 39 42 44 48 49 46 44 43 44 44
16 19 16 16 13 11 17 18 15 16 13 13 10 10 7 8 8 8 9 9 12 14 15 15 17 18 20 21 22 27 32 35 37 40 43 46 49 48 46 43 41 42 43 44
13 9 9 8 15 15 24 21 14 10 9 9 10 7 4 3 4 5 6 9 12 14 16 17 19 21 23 25 28 33 35 33 36 40 44 46 45 43 41 41 42 44 47 50
13 12 17 18 18 20 22 23 20 14 14 13 12 10 6 5 5 8 11 13 15 16 15 14 19 19 22 28 32 33 36 38 43 48 47 43 46 45 44 46 49 51 53 55
19 19 17 20 21 24 19 17 19 22 24 17 14 12 8 8 9 13 14 14 15 15 17 20 23 24 27 27 36 36 39 46 47 43 43 46 45 44 47 49 51 53 55 57
24 20 15 21 22 18 18 19 19 19 20 18 13 15 10 11 15 16 15 15 15 16 18 22 24 27 25 33 36 38 38 41 43 43 44 44 44 48 52 55 55 56 58 60
18 15 14 18 21 17 18 17 16 17 17 14 13 17 14 16 15 13 13 14 15 17 19 21 23 25 27 30 32 34 36 40 42 45 49 50 51 53 53 55 57 59 61 64
18 18 16 16 19 20 19 19 19 18 17 16 16 9 11 9 9 10 10 9 10 11 13 16 19 22 26 29 32 35 37 40 44 47 49 49 51 53 56 57 59 61 64 67
15 15 14 15 17 19 19 19 19 18 14 10 7 5 5 6 6 4 4 6 9 11 14 17 20 24 28 31 34 36 39 43 46 48 50 54 57 57 58 61 62 64 67 71
15 16 17 16 18 18 18 15 13 10 8 6 2 3 2 4 4 6 7 8 11 13 15 19 22 25 28 31 34 37 41 44 46 50 54 58 57 60 63 63 63 66 71 76
18 18 18 17 15 14 12 11 11 9 7 6 5 5 6 8 8 10 12 13 15 18 21 24 27 29 32 35 39 43 46 47 51 53 55 58 61 61 61 61 66 70 75 80
17 16 17 17 16 14 12 11 11 10 9 9 10 8 10 13 13 14 16 18 20 23 25 28 31 34 37 40 44 47 48 50 53 53 58 63 62 60 61 65 70 75 79 83
14 13 16 16 15 14 13 13 13 13 13 12 12 15 17 18 19 21 22 24 27 29 32 34 36 38 40 43 47 49 51 53 52 57 60 61 60 61 64 70 74 78 82 85
15 14 14 16 17 17 15 16 17 16 15 16 16 19 24 24 25 25 27 30 32 34 36 38 39 41 43 45 49 51 52 51 55 59 61 60 61 64 69 73 76 81 84 85
15 15 17 19 18 18 18 19 19 19 21 23 23 24 31 30 31 31 33 35 37 39 41 42 42 44 47 50 52 53 53 55 57 60 60 60 63 67 71 75 78 80 84 90
16 17 19 20 20 21 22 21 21 24 26 27 31 29 35 37 38 36 38 40 41 44 45 46 46 48 51 54 53 55 56 57 59 60 60 63 66 70 74 76 79 83 89 94
18 18 21 23 24 26 27 20 26 29 31 34 35 36 39 40 41 41 43 44 45 47 48 50 50 52 55 55 56 57 58 59 60 60 63 66 69 73 76 79 81 88 92 94
18 21 24 26 28 32 27 28 31 35 37 39 40 41 43 45 45 44 46 47 48 49 51 52 53 55 57 57 58 59 59 60 60 62 65 69 72 75 77 80 87 91 91 84
19 22 25 28 30 32 33 33 35 39 41 43 44 47 49 50 50 49 51 50 51 52 53 54 54 55 57 59 58 59 59 60 62 64 69 72 76 76 79 84 89 90 84 73
20 23 25 27 31 32 33 36 38 42 44 44 47 49 51 51 52 51 51 52 53 54 54 54 55 56 58 58 59 58 59 61 64 68 73 75 78 78 83 89 89 84 74 67
21 24 26 28 32 35 35 37 39 41 45 46 48 49 50 50 50 50 52 52 53 52 53 54 54 57 59 59 59 58 61 66 66 73 74 78 77 82 87 89 85 75 68 62
26 29 29 32 35 38 39 40 43 45 47 48 49 48 48 49 49 50 50 50 52 53 54 56 56 58 60 60 59 60 64 67 70 74 77 76 81 86 89 84 76 68 63 53
32 33 36 36 36 39 42 44 46 46 47 47 47 47 47 47 47 48 48 51 53 56 58 59 60 59 62 62 62 65 66 68 73 77 76 81 85 88 86 75 70 63 55 43
37 39 39 39 36 40 44 44 44 44 44 44 45 46 45 45 46 50 52 54 58 58 59 60 61 64 62 63 65 69 69 71 77 77 82 86 86 86 76 70 64 57 46 38
39 36 36 38 38 41 40 39 40 41 42 42 43 43 43 47 51 54 56 57 57 57 59 58 65 64 64 66 68 70 70 77 81 81 85 86 85 78 68 65 58 49 39 35
28 35 40 41 38 39 37 37 39 39 39 41 43 46 50 52 54 52 52 54 54 55 59 66 64 66 68 69 66 64 73 76 79 81 84 84 79 69 64 59 52 42 36 33

GFSCGP_500_spd_018.txt.gz
Wind_Speed
29 19 14 16 21 16 11 11 9 8 10 12 12 12 9 6 7 9 11 10 13 15 15 14 14 14 17 19 21 22 22 23 30 32 36 38 41 43 47 47 42 42 40 41
23 22 21 18 13 10 10 15 11 9 12 9 9 9 7 9 10 10 11 12 15 15 15 15 16 19 20 22 21 20 23 28 33 36 40 42 45 48 46 45 44 43 43 46
11 21 16 20 15 10 8 18 11 8 5 4 8 9 10 8 9 10 11 11 13 14 15 16 16 18 18 23 23 22 28 33 35 39 40 43 49 44 44 47 48 48 49 51
22 10 6 5 13 13 13 21 16 8 8 8 8 8 11 10 10 10 12 14 15 16 15 14 16 18 20 22 24 28 30 30 33 37 38 40 42 45 48 50 49 51 53 54
12 7 10 13 13 14 15 16 21 14 14 16 14 15 19 15 11 14 16 16 17 15 14 17 17 21 23 22 22 22 22 25 29 32 36 39 42 45 48 51 53 55 56 56
17 12 11 15 15 15 17 12 15 15 19 20 21 20 17 15 15 16 18 18 17 14 16 17 18 18 16 17 20 22 25 27 31 34 38 41 44 47 50 52 55 57 58 58
18 21 20 15 12 16 14 14 17 18 19 18 16 19 17 15 17 19 18 17 15 15 15 14 14 14 15 19 21 24 26 30 35 39 43 46 48 50 52 54 57 58 59 61
18 17 18 13 14 18 20 17 18 19 18 18 16 15 14 15 17 16 15 12 10 9 11 12 14 15 18 21 23 26 29 33 37 41 45 48 49 52 53 56 58 61 63 62
18 19 17 15 16 18 18 19 18 19 19 17 13 9 12 12 11 8 7 8 7 10 12 13 16 20 23 26 28 30 33 37 39 42 44 41 55 55 55 58 60 66 63 62
17 18 17 17 19 20 20 19 20 19 17 13 7 6 6 6 7 9 9 10 11 13 15 17 21 24 27 30 32 34 37 40 43 45 40 50 55 56 57 62 64 63 62 64
17 18 18 19 19 19 19 18 16 15 12 10 9 9 11 12 11 12 14 15 17 19 21 23 26 29 32 34 36 38 41 45 47 49 51 55 58 58 59 62 63 62 64 68
20 20 19 19 19 18 16 15 15 14 13 12 12 10 14 13 14 16 17 20 22 25 27 30 33 35 38 40 41 42 45 48 52 53 55 58 59 59 61 63 62 65 69 73
20 20 19 19 17 15 15 15 15 15 16 13 14 14 16 17 19 21 23 25 28 30 32 36 38 41 44 45 46 48 49 52 54 55 59 61 60 60 63 63 65 69 73 76
17 14 14 15 16 17 17 17 17 18 18 17 14 20 22 24 24 26 29 31 34 36 38 41 43 46 48 50 51 53 54 53 55 58 61 62 61 62 63 64 68 72 75 78
16 14 15 16 18 19 19 20 19 20 21 23 22 23 27 34 31 34 36 38 40 42 43 45 47 49 52 53 54 55 56 56 58 59 61 62 62 62 64 67 71 75 78 82
16 14 16 17 17 20 21 21 21 22 24 26 29 28 33 37 38 39 41 43 44 46 47 49 50 53 54 55 56 57 56 57 58 62 62 62 62 62 67 69 75 78 81 87
17 15 17 17 19 22 23 19 24 27 28 31 35 35 38 42 44 46 46 48 49 50 51 51 52 54 55 57 56 55 56 57 62 62 62 60 61 65 68 72 77 80 85 89
15 17 18 19 22 26 22 24 27 31 33 37 40 43 45 48 50 50 51 52 52 52 52 52 53 55 56 56 54 55 57 60 60 61 60 61 65 67 68 73 76 82 88 90
15 18 20 22 23 24 26 28 29 33 35 39 43 45 48 50 52 51 52 52 52 52 52 52 54 55 54 54 54 57 59 61 62 61 62 64 68 70 71 77 81 86 90 94
13 17 19 21 23 23 25 26 29 33 36 38 40 44 46 48 50 52 51 52 52 51 52 52 51 51 53 54 56 56 56 59 62 63 64 68 72 74 75 76 83 87 93 92
15 18 20 22 26 28 30 31 33 36 41 42 44 45 46 47 49 49 50 49 49 49 48 48 50 52 55 57 58 59 56 62 64 64 66 70 73 73 73 82 85 94 95 85
21 23 25 27 30 34 35 38 41 43 44 45 45 46 46 45 45 45 45 45 44 44 47 50 54 56 56 58 59 57 61 67 70 68 71 71 71 72 79 85 89 95 88 75
26 29 31 31 33 38 42 45 45 45 44 43 42 43 44 44 44 43 43 42 46 49 53 54 54 55 53 64 62 61 64 71 73 73 74 67 70 76 82 85 86 83 75 66
31 35 35 36 37 42 45 44 42 42 41 41 41 41 41 41 41 43 46 50 52 55 55 53 55 58 55 66 65 59 65 78 82 79 72 69 75 79 83 86 81 73 66 59
34 37 40 42 40 41 39 39 40 40 41 41 40 40 42 43 45 48 50 53 54 54 53 55 57 60 62 63 66 69 75 85 85 74 73 73 76 79 81 82 74 65 59 52
38 40 42 39 38 38 38 38 39 40 40 41 41 43 44 46 48 49 49 49 50 52 55 58 61 62 62 66 76 72 79 75 69 71 73 75 77 79 77 71 64 58 53 45

GFSCGP_500_spd_021.txt.gz
Wind_Speed
29 31 26 19 19 5 6 6 8 10 10 15 12 11 9 9 9 8 8 10 11 11 11 12 13 14 15 19 22 24 24 25 22 27 32 36 38 40 40 43 45 45 46 46
22 10 7 14 17 16 6 7 12 7 8 12 10 9 6 7 7 10 11 13 14 14 15 14 14 16 18 22 26 26 27 26 28 30 35 34 35 36 38 40 43 44 46 48
24 19 13 16 12 7 7 10 13 4 4 6 10 12 8 7 10 13 14 16 15 15 14 16 18 19 19 22 26 25 26 27 30 31 29 29 31 35 38 40 43 45 47 50
13 22 23 20 16 12 8 9 7 7 5 7 7 9 19 9 12 9 11 13 16 17 18 20 22 21 23 26 27 26 25 24 22 25 27 30 33 38 40 44 47 50 50 51
10 10 6 3 6 8 15 5 16 13 7 14 10 12 31 2 15 17 16 18 20 22 22 23 23 23 26 27 20 18 19 20 23 26 29 32 36 40 43 46 50 53 55 56
19 10 12 9 6 9 7 9 9 14 9 15 11 14 14 15 20 27 23 23 24 24 25 26 25 26 23 17 17 18 20 22 25 28 32 35 39 43 46 49 50 53 58 60
9 13 13 8 12 11 12 9 5 10 14 14 16 19 17 16 19 26 27 28 28 27 26 26 24 19 16 15 19 21 23 26 30 33 36 39 43 46 50 45 55 58 64 62
13 12 19 16 13 9 10 11 12 12 12 8 19 18 16 23 26 26 29 27 24 23 20 18 17 16 17 20 23 25 28 32 35 38 41 45 47 49 49 50 58 62 64 63
11 20 13 15 14 13 15 17 20 19 19 19 18 15 20 17 18 18 15 13 13 14 15 16 18 20 23 27 29 32 35 37 40 43 46 48 50 52 53 55 59 62 63 63
17 17 18 15 16 16 18 19 17 19 22 19 5 11 13 12 10 9 11 13 15 17 20 21 23 26 30 33 35 38 41 43 46 48 50 52 54 55 56 59 61 63 63 63
17 17 19 17 17 17 19 19 19 20 19 17 13 8 17 14 13 14 15 17 20 22 23 26 29 32 36 38 41 44 46 48 51 53 57 58 58 58 59 60 63 64 63 64
19 19 21 17 19 19 19 19 20 19 19 16 16 15 14 17 18 18 19 20 22 25 29 31 33 37 41 43 45 48 50 52 53 56 58 58 59 59 60 63 63 64 64 64
20 21 22 22 21 19 18 18 18 19 19 17 18 14 17 20 21 22 24 26 28 31 34 37 39 42 45 47 49 51 52 54 56 58 59 59 58 58 61 64 64 64 64 66
24 22 21 19 15 17 17 18 19 20 18 17 18 20 22 25 26 28 28 33 35 37 40 43 45 46 48 51 53 54 54 56 58 59 59 58 58 60 62 64 64 65 66 70
21 19 18 18 17 17 18 18 20 20 18 23 17 26 24 32 35 35 36 37 40 43 45 47 49 51 52 54 55 56 56 58 58 58 57 57 58 59 62 64 64 66 69 73
19 18 18 18 17 17 19 19 19 20 21 24 25 29 29 35 38 40 43 44 46 48 50 51 52 53 54 55 55 55 56 57 55 56 56 58 58 60 64 65 66 68 72 75
20 19 19 17 16 18 17 17 20 23 24 28 31 31 36 40 42 44 48 50 51 52 53 53 53 53 53 53 54 55 54 53 54 56 58 59 61 62 66 68 69 71 75 76
18 19 19 16 19 21 17 19 23 26 27 31 36 37 42 46 45 49 50 52 52 52 52 51 51 51 52 52 52 51 52 54 57 58 59 57 57 64 70 74 75 76 78 76
15 17 18 19 20 21 20 22 23 27 28 35 36 39 41 45 46 47 52 50 51 52 51 50 50 50 49 48 50 53 56 58 58 56 59 60 63 70 75 76 78 80 75 74
12 14 16 17 18 19 20 21 23 26 30 34 35 38 41 45 47 48 50 52 51 49 49 48 47 46 46 50 53 56 55 56 61 59 65 69 70 74 83 80 79 78 80 78
9 11 13 16 18 20 23 25 27 31 36 38 40 43 45 45 46 45 47 47 46 45 45 43 44 47 51 54 55 53 56 59 61 68 72 76 81 83 85 81 81 77 79 80
14 17 18 21 23 27 28 32 33 36 39 41 43 45 45 45 46 46 44 43 43 42 43 45 48 51 53 53 53 57 60 63 65 63 78 82 87 80 80 78 75 79 80 83
21 23 25 26 29 33 35 36 39 41 42 43 43 43 45 45 44 45 43 42 44 46 48 50 52 51 52 54 56 54 65 71 66 72 77 82 81 78 67 71 72 75 73 71
26 28 29 31 33 36 39 41 43 43 43 42 43 44 44 43 43 43 45 44 46 48 50 50 52 54 57 58 60 63 68 69 81 80 79 82 72 64 72 72 74 73 68 67
32 34 35 36 36 40 41 45 43 42 43 42 43 45 44 43 44 45 47 47 48 49 51 53 56 58 60 63 66 64 68 69 69 79 81 78 81 74 75 74 68 69 61 57
36 38 37 39 41 40 42 42 40 42 43 44 44 45 45 45 46 47 46 48 52 54 56 57 59 64 65 64 62 66 72 75 79 80 82 79 79 78 71 69 62 61 53 52

GFSCGP_500_spd_027.txt.gz
Wind_Speed
10 10 11 9 15 15 13 9 6 11 4 8 9 2 7 5 8 6 4 3 4 5 4 3 3 5 2 8 12 15 18 17 19 19 21 20 20 19 19 23 27 31 33 38
11 16 13 13 10 14 16 11 10 10 6 7 14 7 3 4 13 7 1 3 3 1 5 6 8 10 10 11 16 17 16 20 22 20 17 17 18 20 24 28 32 35 38 43
5 11 14 18 13 12 7 8 16 13 11 10 12 9 16 14 5 11 10 6 2 2 3 7 11 16 17 18 20 19 19 24 19 15 17 20 22 26 29 32 36 40 44 47
9 11 14 17 17 8 7 11 13 16 12 13 12 15 21 24 19 9 10 12 9 7 2 6 12 22 26 25 24 22 24 19 17 18 21 23 26 29 32 35 40 44 47 50
11 13 17 13 16 15 4 5 4 10 3 3 12 17 23 26 24 18 13 13 14 16 16 15 15 19 25 28 24 20 17 18 19 21 25 29 34 37 41 43 46 48 51 53
5 11 10 9 11 12 6 4 8 15 19 17 7 14 18 18 11 15 17 6 16 19 22 24 22 22 23 25 21 16 16 19 23 28 32 35 39 42 45 49 51 54 56 57
5 11 7 10 6 9 11 10 13 13 18 18 13 19 12 6 9 15 14 10 12 19 22 24 23 18 16 16 17 16 18 23 28 33 36 40 44 47 50 53 55 57 57 58
11 12 14 13 6 6 6 11 16 17 17 20 18 9 13 9 12 15 14 16 13 16 17 16 11 9 13 16 19 21 24 28 32 36 41 46 48 51 52 54 56 57 58 59
17 19 22 19 17 15 10 16 19 14 13 7 10 6 18 13 14 16 15 10 8 7 9 9 10 13 17 20 24 28 30 33 36 40 44 49 50 52 54 56 57 58 59 59
21 20 24 22 13 9 11 14 15 17 15 10 4 13 13 11 16 16 15 10 11 11 13 14 16 18 20 26 30 33 36 38 40 42 46 50 51 53 55 56 56 59 59 58
16 19 18 8 12 10 13 16 17 18 18 16 8 14 13 11 14 18 22 19 16 16 19 21 23 25 26 30 34 38 42 43 44 45 48 51 53 54 55 55 57 59 57 54
19 17 16 12 9 9 13 14 16 17 16 20 12 12 20 17 21 21 22 26 24 23 25 27 30 31 32 34 38 42 46 48 48 47 49 52 52 54 55 57 57 55 58 59
16 17 15 15 17 16 17 16 17 19 16 15 14 10 15 18 21 24 25 25 27 29 31 35 37 38 39 41 41 43 45 50 49 48 50 53 55 55 56 54 54 58 57 58
20 21 20 19 17 20 19 17 16 21 22 14 11 11 14 18 24 29 28 27 25 28 36 40 43 44 45 44 43 43 45 50 52 53 52 54 54 53 53 56 59 58 57 60
24 25 24 24 21 23 23 16 15 16 18 17 11 15 13 19 25 30 33 34 34 37 39 46 46 48 46 48 47 51 51 52 52 53 51 52 51 53 57 59 57 61 63 65
26 27 27 25 24 24 23 16 20 19 16 17 15 18 19 25 29 31 34 36 38 43 45 46 48 50 49 51 47 49 51 52 50 49 50 51 55 57 58 57 61 64 65 67
24 24 24 21 22 22 19 15 19 17 18 20 20 23 26 28 31 32 35 38 39 42 44 44 47 50 52 52 44 47 49 48 49 50 53 55 56 55 58 61 64 68 72 71
20 24 24 22 23 23 18 16 16 17 20 22 25 25 26 29 32 35 38 39 41 44 46 48 49 49 49 48 46 45 46 50 53 54 54 54 55 58 62 65 69 70 79 85
21 23 24 24 24 20 19 17 16 19 23 23 23 26 29 31 34 37 39 41 44 47 49 49 48 45 43 43 44 46 49 52 53 53 55 57 60 64 63 74 75 77 80 86
19 21 23 22 21 21 21 20 19 23 25 21 23 25 28 31 35 37 41 44 46 46 46 45 43 43 43 45 47 47 49 49 52 55 58 62 67 67 67 71 72 73 80 79
18 17 17 17 18 18 18 17 19 19 20 21 25 28 30 34 37 41 43 44 45 43 44 47 46 47 47 46 48 47 50 54 56 59 63 59 66 72 71 72 70 72 69 74
13 12 12 12 13 15 15 17 18 21 23 25 29 32 35 38 39 41 44 44 42 40 42 46 47 47 47 47 47 49 52 55 58 61 61 62 61 66 68 69 70 71 72 76
15 15 14 15 16 17 18 19 20 23 26 31 34 36 39 40 42 44 42 42 44 44 46 46 46 46 45 47 50 53 56 60 63 66 66 65 66 64 67 70 72 73 70 60
18 18 18 19 21 21 24 25 27 29 31 35 38 41 42 42 42 43 45 46 47 48 48 47 46 46 48 51 55 59 63 65 65 64 61 62 64 67 69 71 70 64 56 56
24 23 24 24 27 28 32 34 36 39 41 42 44 44 44 42 43 45 47 49 49 49 49 48 49 50 53 58 62 64 65 63 60 60 63 66 69 70 70 68 60 59 58 63
30 31 30 32 32 33 36 39 41 43 46 47 47 46 45 45 46 49 50 50 50 50 49 49 52 56 61 65 65 64 60 60 62 65 68 68 70 69 64 60 60 60 63 65

GFSCGP_500_spd_030.txt.gz
Wind_Speed
4 6 13 13 13 9 14 17 18 12 9 7 1 5 3 1 3 5 3 1 2 2 3 7 6 3 7 11 13 15 12 10 11 16 14 12 10 9 12 15 20 24 28 31
4 7 13 14 14 19 16 15 15 10 5 4 6 6 3 2 4 4 2 3 5 4 4 5 4 5 6 7 12 13 13 12 14 12 9 10 12 14 17 22 26 30 33 36
3 7 9 7 20 17 12 18 16 11 5 3 8 10 7 5 2 3 4 3 5 2 6 4 3 6 6 9 11 13 10 13 13 11 12 14 16 20 24 28 32 35 38 41
3 9 9 15 19 18 13 14 13 12 12 12 11 10 7 10 12 5 8 6 6 8 5 6 7 8 11 12 12 12 11 10 11 12 16 18 22 26 29 33 37 40 43 45
5 9 16 18 20 16 6 12 13 10 15 11 9 12 7 17 22 13 18 12 3 2 3 5 3 8 14 14 13 14 9 9 11 15 20 25 28 32 35 38 41 44 47 49
4 9 13 14 16 15 7 10 10 11 13 16 19 18 15 17 19 4 5 7 8 9 5 7 8 9 11 13 10 10 12 14 17 21 26 30 34 37 40 43 46 48 51 54
9 9 17 17 18 15 11 12 12 15 19 21 18 18 9 9 0 2 1 8 8 7 9 10 7 6 8 9 12 12 14 18 23 27 31 35 39 43 47 49 52 54 56 57
15 15 15 13 16 16 16 16 17 21 19 16 18 21 15 7 6 3 3 5 6 6 6 3 2 4 9 13 14 17 19 24 29 32 36 40 45 48 51 53 55 56 59 57
15 18 15 14 16 14 12 11 16 20 17 15 12 18 17 14 8 6 2 3 4 3 5 4 7 10 15 17 19 20 24 28 34 39 42 46 49 51 52 53 55 57 56 58
16 17 16 17 20 19 14 18 18 18 18 14 13 19 21 17 14 9 8 5 8 8 10 9 11 14 17 22 25 27 31 35 39 42 45 48 49 51 52 54 56 55 57 58
21 17 19 15 14 19 15 18 20 17 18 16 14 16 18 18 16 16 14 11 12 13 14 13 15 18 21 26 32 35 38 41 43 42 42 45 48 49 52 55 56 55 55 55
15 16 21 11 10 15 17 17 18 19 17 20 18 14 17 20 22 24 23 16 14 15 16 18 20 22 27 31 34 38 41 40 40 41 42 45 49 51 54 57 53 52 51 55
14 18 19 21 16 17 18 18 20 23 23 22 20 13 16 18 23 28 27 22 17 18 21 24 27 30 30 31 33 33 33 38 41 45 46 46 52 54 56 52 50 52 56 58
19 21 18 16 15 20 22 20 23 23 22 22 17 16 16 19 24 27 24 23 20 19 23 28 32 32 34 37 38 43 42 43 37 41 46 51 54 54 51 52 54 56 58 59
23 21 21 20 20 21 26 25 21 27 24 21 15 21 16 23 25 24 23 25 25 25 27 30 32 37 39 42 46 47 47 40 43 44 51 52 53 51 52 54 55 57 60 64
24 25 25 26 26 28 30 29 23 22 23 26 17 19 22 26 26 24 25 26 29 32 33 34 38 43 46 48 48 45 46 43 43 49 51 50 51 53 53 54 59 60 64 69
26 29 30 30 30 32 31 23 24 24 24 25 22 21 22 24 25 25 27 29 33 37 40 41 42 43 45 46 47 47 47 49 49 49 49 50 52 52 55 58 62 67 69 67
25 24 26 28 29 32 22 25 24 23 23 22 22 22 21 24 26 29 31 34 35 37 40 42 43 45 45 45 46 48 48 42 45 47 49 51 53 57 59 62 66 66 65 74
26 26 25 26 26 27 23 24 23 22 23 22 21 22 24 26 28 30 31 34 37 40 42 43 44 46 46 47 48 46 43 44 47 49 50 51 56 63 67 68 71 70 71 77
24 26 27 25 24 26 21 21 24 23 24 21 22 25 27 27 28 31 33 37 40 42 44 45 46 48 48 46 46 46 47 48 48 47 52 54 52 64 60 70 71 70 70 75
25 25 25 24 23 23 19 22 24 25 21 21 22 24 26 29 31 33 36 40 41 42 44 45 47 48 48 49 49 49 49 48 48 54 56 59 63 65 65 60 67 66 70 72
24 21 20 19 18 16 16 20 21 19 18 20 23 26 28 30 33 37 40 42 43 44 44 46 48 49 49 50 51 50 48 48 51 55 60 62 64 63 59 60 63 67 70 73
23 19 18 16 14 16 16 15 15 16 19 23 26 29 32 34 37 40 42 44 45 45 46 47 49 51 52 51 50 49 50 52 56 61 63 64 61 59 61 65 69 72 73 73
24 21 19 19 17 18 18 18 20 23 26 28 31 34 37 39 42 44 45 45 46 47 48 51 52 52 53 52 50 50 54 58 62 65 64 60 60 63 68 72 74 73 73 69
29 27 23 23 21 24 25 26 29 30 33 35 38 41 42 44 46 47 47 47 48 50 51 53 54 53 52 51 52 55 59 64 66 65 63 62 65 68 72 74 74 74 72 68
33 31 29 28 29 30 31 33 35 38 40 42 44 46 48 49 49 49 49 49 50 52 54 54 52 51 51 54 57 61 65 67 65 64 64 66 70 73 75 75 74 72 69 67

GFSCGP_500_spd_033.txt.gz
Wind_Speed
4 6 9 14 17 18 12 16 15 12 12 12 14 6 2 4 4 5 7 8 10 8 10 11 11 10 8 6 3 1 2 2 2 5 7 4 3 4 8 11 14 19 24 28
5 5 7 13 14 11 19 17 18 11 7 6 8 7 4 4 4 5 4 4 8 10 9 5 8 7 4 4 2 2 1 3 3 5 4 5 6 9 12 16 21 25 28 32
6 7 6 9 11 20 20 18 16 15 8 4 5 6 6 6 6 5 5 3 5 8 11 10 7 4 1 4 5 6 2 4 6 7 6 8 13 15 18 23 27 30 33 37
9 9 6 7 18 14 17 19 18 15 9 8 7 6 5 5 8 4 7 4 1 4 4 6 3 1 2 4 7 9 9 8 8 9 11 14 17 20 26 30 33 36 39 43
8 10 10 17 21 13 12 16 17 13 11 10 10 11 8 9 7 3 5 5 4 8 9 8 5 6 8 9 8 9 8 12 11 12 15 18 23 28 33 35 37 40 43 46
8 10 15 17 22 16 7 13 18 14 10 12 15 15 12 6 7 4 4 5 6 8 10 14 9 10 10 10 10 6 8 12 14 16 20 23 28 35 38 39 42 43 47 49
10 11 10 18 15 21 17 14 13 16 15 13 19 20 11 12 5 8 9 8 6 6 7 7 8 9 10 8 8 8 9 15 17 20 25 29 35 39 43 43 45 48 50 49
17 13 13 16 15 17 17 20 20 18 19 18 19 13 11 12 8 8 8 7 6 6 8 8 8 6 8 9 12 15 14 17 23 26 30 34 39 45 44 43 46 50 51 52
22 21 20 18 17 22 19 18 19 22 21 19 18 18 16 13 18 13 13 10 9 6 5 4 5 8 11 12 14 14 18 25 29 33 36 41 45 44 46 48 51 52 52 52
22 19 22 21 20 21 18 20 22 22 22 18 16 15 14 16 17 18 16 15 11 8 8 8 10 13 15 16 19 21 24 28 33 37 41 44 43 45 49 51 52 50 52 54
31 27 24 22 19 19 20 24 24 23 23 21 19 19 17 19 18 21 18 17 14 13 12 14 15 17 18 19 23 27 30 34 38 41 41 40 45 46 52 53 52 54 55 54
29 27 23 21 19 23 19 25 26 27 22 24 21 16 18 20 20 22 21 20 17 17 17 18 20 21 20 23 28 32 33 36 39 40 44 42 46 49 53 53 55 59 56 54
20 22 22 19 23 19 14 14 20 24 24 24 24 17 17 23 25 27 24 17 17 17 20 21 22 23 26 30 33 33 34 36 37 37 39 43 44 48 53 56 57 53 52 54
24 24 23 18 18 22 25 22 21 25 27 23 24 20 23 23 27 27 26 20 16 15 17 19 23 28 29 31 33 34 37 35 39 40 41 44 45 52 52 52 51 51 53 53
20 23 21 19 20 21 23 23 24 23 23 25 24 25 23 28 29 27 24 20 21 20 22 24 25 25 28 32 34 35 36 37 38 45 49 46 50 52 52 52 52 53 53 56
22 22 23 25 24 25 26 27 29 26 26 30 31 29 22 25 26 24 23 25 24 26 27 28 28 31 33 35 39 41 44 46 47 48 51 52 50 50 51 53 54 54 56 62
22 23 23 24 27 30 31 28 30 33 33 31 34 29 29 27 25 24 25 26 28 29 29 30 32 36 38 42 45 47 47 47 48 51 53 52 52 54 55 55 55 59 61 66
24 26 27 30 32 35 29 29 29 30 30 30 31 25 24 24 24 24 26 27 29 30 32 34 36 39 42 46 47 46 46 49 51 52 52 51 54 54 52 55 58 63 61 69
28 28 29 33 32 32 27 25 26 27 28 26 26 25 25 23 24 26 27 30 30 31 34 37 40 43 46 47 46 46 48 50 52 53 51 51 51 51 50 57 54 73 70 74
29 29 31 33 34 32 21 26 25 27 29 24 23 23 25 26 27 27 28 29 31 34 36 40 44 46 47 46 46 47 49 51 52 52 51 50 51 50 50 63 66 67 68 71
29 32 33 33 33 28 22 25 28 29 19 22 24 26 26 26 26 26 29 32 34 37 41 45 46 47 47 47 48 50 51 53 54 53 52 52 53 56 61 65 66 66 65 66
31 33 33 31 29 26 21 24 22 19 20 21 23 23 25 25 26 29 32 34 37 40 42 43 45 46 46 47 49 51 53 55 54 52 52 53 57 61 65 66 65 64 65 67
33 31 29 28 24 21 18 16 14 14 17 20 21 22 24 26 29 32 35 37 39 42 44 46 47 47 48 50 52 54 55 54 53 52 55 59 63 66 66 64 64 66 70 74
34 31 29 27 23 21 18 17 17 18 20 22 24 26 28 31 33 36 38 41 44 46 47 48 49 49 51 53 55 55 55 54 54 57 60 64 66 67 66 66 68 71 75 76
33 32 30 29 25 23 23 23 23 23 25 27 30 32 34 36 39 41 44 45 47 48 49 50 51 52 53 55 56 55 55 56 58 62 65 67 68 67 67 69 73 75 77 79
37 33 32 31 30 30 29 29 29 31 32 34 36 38 40 42 45 47 49 50 50 51 52 52 53 55 56 57 57 56 57 60 63 67 69 69 68 68 70 73 75 78 80 80

GFSCGP_500_spd_036.txt.gz
Wind_Speed
1 2 2 6 7 9 14 12 16 7 12 10 12 10 13 13 8 6 5 7 11 11 13 14 13 13 11 11 9 8 7 5 7 8 9 8 8 8 7 8 11 14 18 22
4 4 5 11 8 10 13 10 7 14 14 12 9 7 7 11 12 8 6 3 6 9 11 10 10 10 11 11 9 8 7 8 9 11 11 9 9 9 10 13 15 18 24 27
3 0 3 7 7 13 16 16 14 16 11 12 13 10 5 10 12 10 6 3 4 6 8 14 15 12 10 7 8 7 9 13 14 14 14 12 13 14 16 17 19 24 29 32
6 4 4 4 8 11 15 16 17 17 11 11 8 7 8 6 11 11 7 7 5 6 8 11 11 10 9 9 9 9 12 15 14 13 15 14 16 18 19 20 24 30 35 38
9 8 8 10 12 12 13 16 15 12 11 10 7 8 9 9 8 9 9 12 13 15 13 12 10 8 7 11 12 12 12 14 15 15 14 14 17 22 24 27 30 37 40 41
11 12 11 10 17 15 13 14 13 14 15 13 13 9 3 5 3 7 12 12 17 19 18 18 18 15 13 15 16 15 11 12 12 11 13 15 19 24 26 30 35 42 41 42
15 12 10 14 17 19 14 8 11 16 19 17 15 11 4 11 10 8 9 8 15 18 19 23 27 23 20 19 16 13 13 18 12 14 17 20 24 28 31 31 39 40 39 40
18 15 13 15 18 21 22 21 19 19 19 18 18 17 12 15 16 14 9 9 10 10 14 18 25 27 18 15 13 15 18 19 13 17 22 26 31 33 34 35 38 38 41 43
18 18 20 21 22 18 19 20 19 22 21 24 20 20 14 17 16 13 12 12 13 12 12 10 11 12 13 11 12 15 19 16 17 22 26 31 35 37 37 37 35 39 47 52
21 24 23 24 25 24 19 19 21 21 22 23 22 22 16 15 14 16 17 16 16 16 13 11 11 12 13 12 17 17 18 20 24 27 32 36 39 39 38 38 41 47 49 56
24 24 26 26 25 24 22 22 24 25 27 27 22 19 15 17 17 16 18 20 19 19 18 17 15 17 17 18 21 24 24 25 27 32 35 37 40 40 37 38 40 52 56 57
26 28 26 21 23 24 27 25 21 29 31 31 27 14 16 18 20 20 23 22 21 21 20 20 19 21 23 24 27 30 29 30 34 37 39 41 41 36 39 49 53 57 57 60
23 24 28 29 27 27 30 25 24 22 24 26 21 13 17 17 20 23 26 24 23 22 24 23 23 24 26 29 30 30 32 34 36 39 40 38 39 46 52 52 56 58 57 59
25 21 21 24 21 26 28 27 25 23 25 20 19 18 19 22 24 27 29 24 23 17 16 19 21 25 28 30 31 32 32 34 37 39 38 43 46 48 51 54 57 58 57 57
27 25 24 24 24 27 30 29 28 27 27 26 21 24 20 24 28 30 30 23 19 19 20 22 25 28 30 30 29 30 33 35 38 38 41 42 45 49 53 56 57 55 56 58
30 25 23 27 28 26 24 23 27 28 26 26 26 27 25 26 27 23 23 22 21 23 25 27 29 30 30 28 29 33 36 39 41 43 43 45 49 52 54 56 53 58 59 58
29 25 24 23 25 25 23 21 25 29 32 32 31 27 29 27 25 28 27 26 25 25 28 30 31 31 29 31 34 37 40 43 46 47 47 49 51 53 54 54 55 59 57 56
28 28 28 27 26 27 19 22 26 30 31 33 32 30 29 26 23 24 24 26 28 29 29 29 29 29 31 34 38 41 44 46 48 48 49 50 52 55 56 57 57 56 56 53
33 32 32 31 26 26 21 22 25 30 29 30 30 28 27 24 23 23 25 27 28 28 29 29 31 32 35 38 42 44 46 47 48 49 50 52 54 56 57 56 55 55 58 61
36 31 32 29 28 27 24 27 29 33 31 25 28 26 24 23 24 25 26 28 29 28 30 31 33 35 38 41 43 44 46 47 48 50 52 54 56 57 56 55 55 59 63 67
37 37 34 29 30 30 27 29 29 32 23 27 26 26 26 26 26 27 27 26 27 29 30 33 36 39 41 42 43 45 46 48 50 52 54 56 56 56 55 56 60 63 67 69
34 34 32 30 31 27 28 29 28 26 25 26 25 25 27 26 24 23 24 25 28 30 33 36 38 41 42 44 46 48 50 51 53 54 55 55 55 55 57 60 64 67 69 69
37 34 36 36 30 28 26 24 23 22 20 20 20 22 21 20 21 24 26 29 32 34 37 39 42 44 46 47 49 50 51 52 54 55 56 55 55 57 60 64 68 70 70 70
32 35 39 33 30 27 25 23 22 22 20 18 18 19 21 23 26 29 31 34 36 39 42 44 46 47 48 50 51 53 54 55 56 57 57 57 58 62 66 69 70 70 70 72
32 31 35 35 32 27 24 25 25 24 24 23 23 24 26 28 31 34 36 38 41 44 46 48 49 50 52 53 55 56 56 57 58 57 57 59 63 67 70 71 71 72 73 77
33 31 34 33 28 32 28 28 28 28 29 30 31 31 32 34 37 39 42 45 47 49 51 52 53 54 55 56 56 57 59 59 57 57 60 64 68 72 72 72 72 74 77 79

GFSCGP_500_spd_039.txt.gz
Wind_Speed
8 3 1 3 3 6 11 7 7 9 6 9 13 11 7 7 10 8 9 8 10 13 14 15 14 14 15 13 11 9 9 10 12 12 12 10 12 14 14 12 12 10 11 14
8 7 4 5 1 4 13 7 7 12 9 10 8 10 6 7 9 8 6 7 9 10 11 12 13 13 13 12 12 12 14 14 15 14 12 10 11 11 10 11 12 13 15 19
7 6 3 5 5 8 11 11 11 9 11 13 12 9 8 8 7 8 6 4 6 5 7 9 10 13 13 12 11 10 11 14 15 13 12 11 12 11 13 15 16 19 22 25
8 10 4 4 5 7 10 11 14 12 12 10 11 13 12 11 12 8 6 5 7 10 10 10 12 13 12 11 12 13 13 14 16 15 15 15 14 15 18 18 21 25 29 30
12 11 7 8 4 5 5 8 11 13 13 7 7 8 13 13 14 10 8 11 10 10 12 14 14 14 14 15 15 15 16 16 20 20 17 16 15 16 20 22 23 27 31 34
11 10 12 12 8 9 7 9 12 11 12 9 10 8 4 8 14 12 12 16 18 18 17 19 20 20 19 19 18 17 18 17 21 19 21 20 17 18 20 23 26 30 31 34
18 11 15 13 10 12 12 12 13 14 12 11 13 10 5 8 10 9 12 17 20 25 24 24 25 25 25 24 24 19 18 22 23 26 24 19 19 21 22 25 28 30 34 35
21 19 18 16 13 17 18 17 13 13 15 14 15 11 10 14 14 13 12 12 13 18 20 24 27 30 31 28 25 22 19 22 23 18 19 18 21 23 27 29 30 30 35 37
19 23 20 19 21 22 22 22 21 22 19 16 18 17 14 16 15 14 14 15 13 12 13 18 22 26 27 28 24 21 19 22 20 19 19 22 25 28 31 32 30 33 35 37
19 26 24 24 26 26 25 23 21 20 22 20 18 17 14 16 17 13 18 19 17 14 13 15 14 14 16 19 19 20 22 22 23 25 26 27 29 31 33 33 37 36 36 40
21 25 25 27 28 28 28 26 23 23 23 21 20 18 14 15 17 17 17 20 19 20 19 18 19 20 19 19 20 21 23 25 29 32 30 32 33 35 36 37 36 39 42 42
21 24 26 24 29 28 27 25 26 27 23 24 26 20 21 17 19 20 20 20 21 23 23 22 22 22 23 23 24 26 26 29 32 32 34 34 37 38 38 36 40 41 48 54
23 24 25 28 28 26 26 26 24 25 28 25 22 15 16 16 18 20 20 23 21 21 23 24 26 27 27 27 28 28 29 31 30 33 34 35 37 40 41 40 45 49 51 53
27 26 22 22 22 25 26 29 27 28 31 31 27 16 19 20 19 20 21 23 21 21 20 23 26 26 27 27 28 30 32 33 33 34 35 37 37 39 41 41 47 50 53 55
29 23 21 20 21 28 31 33 30 29 30 30 22 21 18 22 22 22 23 23 21 22 23 22 24 25 26 27 30 31 32 32 33 34 36 38 38 38 40 45 49 51 54 57
28 22 22 23 25 27 28 28 26 25 21 22 25 21 23 26 27 25 26 23 21 19 23 26 26 27 29 30 30 32 32 32 33 34 37 40 43 45 48 50 52 54 55 56
31 27 25 25 25 26 24 20 21 21 23 25 26 24 29 27 27 29 27 26 24 24 24 25 27 28 29 30 30 30 31 32 34 37 40 43 46 48 49 51 53 55 56 58
32 28 26 29 27 27 11 17 19 20 21 24 25 25 27 30 29 28 27 26 23 23 25 26 26 28 29 29 29 30 32 35 37 40 43 45 47 49 51 52 54 58 56 57
31 29 30 31 28 26 20 17 19 22 16 24 24 28 27 26 27 26 26 26 25 24 23 24 25 25 26 28 30 32 35 38 40 42 44 47 48 50 52 53 55 55 58 58
32 30 35 36 34 29 14 20 22 23 14 18 24 27 28 27 26 25 25 24 22 22 24 24 25 25 27 30 32 35 38 40 42 45 46 48 51 52 54 56 57 57 57 58
34 31 34 37 33 24 20 22 23 25 24 22 25 26 26 25 26 26 24 22 23 24 23 23 25 27 30 33 35 38 41 43 45 47 49 50 52 54 56 57 57 57 57 60
37 32 33 33 34 34 22 24 26 26 24 22 22 23 22 21 22 23 22 22 22 22 23 26 28 31 34 37 41 43 46 47 48 50 52 54 56 57 58 58 56 56 58 62
39 34 34 32 30 28 24 24 25 26 24 22 19 19 18 16 18 18 19 21 22 25 28 30 33 36 40 43 46 48 49 50 52 54 56 57 58 59 59 56 57 60 63 67
40 35 32 32 32 30 27 26 27 26 25 23 21 18 18 17 18 20 23 26 28 30 33 36 39 42 45 48 50 51 51 53 56 57 59 60 61 62 60 59 60 64 69 72
42 38 35 34 29 28 30 30 32 31 27 24 24 23 23 24 25 27 29 31 33 36 39 42 45 47 49 51 52 53 55 58 60 60 61 63 64 62 60 62 66 70 75 78
42 39 35 32 25 28 29 32 34 30 30 29 28 28 29 30 31 33 35 37 40 42 45 48 50 51 53 54 54 56 58 59 60 61 64 65 63 62 64 67 72 75 77 78

GFSCGP_500_spd_042.txt.gz
Wind_Speed
12 11 7 6 7 8 19 14 10 10 3 9 10 7 4 3 8 3 2 3 5 8 10 12 12 11 12 12 10 9 8 8 9 10 12 12 12 12 13 15 16 15 14 14
10 7 2 2 5 7 11 13 12 11 6 8 13 12 4 3 4 6 3 4 5 6 8 8 8 7 7 8 8 9 10 10 12 12 9 9 9 13 15 16 15 15 15 16
10 5 2 1 6 6 9 12 10 13 12 11 11 8 5 6 5 6 4 4 5 5 7 8 9 9 11 12 11 10 11 12 14 14 16 11 12 14 15 14 16 18 18 21
10 7 5 3 6 7 10 12 10 12 8 8 12 6 7 7 9 5 4 5 6 7 8 8 9 10 12 13 12 12 13 14 16 16 17 14 13 16 17 18 18 19 22 25
10 9 8 9 7 7 9 10 13 11 9 8 6 5 14 15 14 11 10 9 9 10 11 11 12 13 14 15 15 14 15 15 16 17 20 20 19 18 18 17 19 22 24 27
14 12 10 15 12 10 8 8 9 9 11 11 8 5 8 11 14 19 17 12 15 15 14 15 18 18 17 19 19 18 17 17 20 21 24 24 25 25 22 19 20 24 28 30
13 15 14 16 16 10 12 11 7 11 12 10 10 7 7 11 14 21 17 18 19 20 21 22 20 21 23 23 23 24 21 22 23 25 31 28 31 31 27 23 22 27 30 31
16 19 17 15 17 15 16 16 12 12 11 11 12 9 10 13 11 15 21 18 18 20 21 21 23 24 26 27 28 28 27 25 26 25 26 31 30 19 20 22 26 29 31 32
16 18 20 21 22 22 21 21 19 17 18 17 15 14 13 16 14 13 13 20 18 19 17 18 22 25 27 28 30 30 29 27 26 28 27 24 14 19 24 27 30 31 33 32
17 19 22 23 25 27 26 25 23 23 22 21 18 17 10 15 16 15 17 20 22 21 19 18 20 20 19 20 21 20 21 25 27 28 27 28 28 29 30 31 32 33 34 32
20 21 23 25 27 28 29 29 28 25 24 22 19 16 13 13 16 18 17 17 23 25 23 20 21 21 20 20 20 21 23 25 27 30 31 32 33 32 33 31 34 35 34 33
21 23 24 23 27 29 31 31 30 28 26 25 26 23 20 18 21 22 22 22 21 23 24 26 25 26 26 26 25 25 27 28 29 31 34 35 34 36 36 36 36 36 37 39
23 25 25 26 27 30 29 29 27 28 27 27 27 22 19 17 17 18 22 24 23 22 23 24 26 28 31 32 31 31 30 31 31 33 34 35 37 38 39 39 39 42 43 46
29 28 25 26 21 24 24 24 25 28 28 25 28 23 21 22 20 20 21 24 24 22 23 23 24 28 31 33 33 33 31 30 31 33 35 37 37 38 39 40 40 42 44 47
32 31 28 23 25 30 28 30 30 32 27 29 23 25 22 22 23 23 22 22 23 25 24 23 26 28 28 30 29 28 29 30 32 34 35 36 37 38 38 40 42 44 46 49
35 32 27 25 24 27 27 29 33 33 28 24 24 19 18 22 24 25 24 26 26 24 23 24 25 27 27 28 29 30 31 32 33 33 34 35 36 37 40 42 45 47 50 52
38 33 30 27 26 28 26 26 27 26 23 21 21 19 23 24 26 27 27 29 30 28 26 26 28 27 27 28 29 31 32 33 33 33 34 36 38 40 43 45 47 50 53 55
40 36 34 31 29 32 12 16 19 22 20 20 23 23 25 25 26 26 28 28 29 29 26 24 25 27 28 29 29 30 31 31 32 33 35 37 40 43 45 48 50 52 54 57
39 37 35 34 30 27 21 19 18 19 14 21 23 25 28 27 27 26 25 25 25 25 26 25 24 24 25 27 28 28 29 30 32 34 37 40 43 46 48 50 53 55 57 58
41 40 37 35 33 29 18 18 20 24 12 22 20 21 24 24 23 23 24 23 23 23 23 23 23 25 25 25 26 27 29 32 34 38 41 44 46 49 51 53 56 57 58 60
40 40 40 33 32 27 21 21 22 26 17 25 23 22 24 24 23 22 21 21 22 22 23 24 24 23 24 26 27 30 32 36 39 42 45 47 49 51 54 56 57 58 59 61
44 40 37 35 34 29 16 24 27 21 25 25 23 22 22 22 20 18 19 20 21 22 22 21 22 24 26 29 31 34 38 41 44 47 49 51 52 54 56 58 59 60 62 63
47 41 37 36 33 26 21 23 28 27 27 27 22 24 22 22 20 19 19 20 20 20 22 24 26 29 31 34 37 41 44 47 50 51 52 53 55 57 58 59 61 63 64 64
43 39 36 36 36 31 22 20 25 30 33 30 27 25 23 23 23 22 22 22 23 25 27 30 32 34 37 40 43 46 49 51 52 53 55 57 58 59 59 61 64 65 65 65
48 41 44 41 33 29 21 20 27 32 36 32 29 27 26 25 26 27 27 28 29 31 33 35 38 40 43 46 48 50 51 53 54 56 58 59 59 60 63 65 66 67 67 69
46 46 44 41 31 31 25 27 30 33 32 32 31 31 30 30 31 32 32 33 35 37 39 42 44 47 49 51 51 51 53 54 57 58 58 58 60 64 67 68 69 70 73 74

GFSCGP_500_spd_045.txt.gz
Wind_Speed
16 12 8 4 13 16 21 14 12 13 14 9 2 4 13 16 11 9 5 3 2 2 7 7 8 10 11 9 10 8 9 9 9 8 7 6 6 10 13 14 14 15 14 15
13 10 6 4 5 8 14 15 12 12 18 8 4 7 12 18 8 7 7 5 2 1 2 3 4 4 5 6 5 3 3 4 5 5 3 4 7 9 13 15 16 16 16 14
13 11 7 4 4 2 9 13 15 18 8 13 9 4 14 9 9 8 9 5 3 2 2 3 2 2 2 4 5 6 5 5 6 7 10 11 12 12 13 13 15 14 15 16
13 13 9 5 8 6 6 13 22 15 17 11 11 16 13 13 14 10 7 6 5 5 4 4 5 6 7 8 8 7 7 7 8 10 14 15 15 13 15 16 16 16 18 21
11 14 12 11 11 8 11 11 10 12 9 10 6 3 15 9 14 15 12 12 8 8 7 7 9 9 10 11 12 11 12 13 13 13 15 16 16 20 19 21 23 23 23 23
18 15 16 15 15 11 6 7 11 11 7 10 4 9 6 10 9 10 17 15 13 13 12 12 13 13 13 14 16 16 17 17 16 16 18 20 25 24 23 25 25 25 24 24
18 13 18 17 17 15 9 9 4 9 12 7 12 13 12 5 15 15 20 14 20 21 21 18 17 17 16 19 21 21 21 22 21 21 21 22 18 27 40 34 34 30 28 27
21 18 21 16 19 17 15 13 13 11 9 14 16 10 13 21 15 13 14 19 22 25 23 20 18 18 20 19 20 21 23 25 23 27 26 19 19 24 27 16 36 25 26 27
25 20 21 27 23 23 17 20 15 20 20 21 11 13 15 18 18 18 17 20 24 24 22 18 18 18 19 22 23 23 26 26 23 20 31 23 22 23 25 26 26 27 30 31
28 23 26 22 29 26 27 21 23 25 20 18 14 13 16 14 18 16 17 18 21 23 22 21 19 19 20 21 23 22 23 22 21 21 25 26 27 27 29 31 30 33 31 33
32 28 29 27 29 27 28 28 25 20 20 19 15 13 15 17 19 20 21 16 19 22 24 24 23 22 22 24 24 24 24 24 24 21 27 29 31 32 33 35 34 36 35 38
33 30 33 28 25 22 23 24 28 28 25 28 28 22 22 21 21 27 24 25 19 21 23 27 27 27 27 28 29 30 29 28 28 29 29 33 35 35 35 36 38 39 40 40
35 36 32 24 27 29 31 27 23 26 27 30 28 24 15 23 19 20 19 22 19 19 22 25 28 29 30 31 33 34 33 32 32 34 36 35 35 36 38 39 39 39 41 42
35 37 36 30 22 19 25 26 27 27 32 31 31 21 18 18 22 23 20 25 21 22 21 24 26 29 31 34 36 37 38 38 38 39 37 36 35 37 39 38 39 39 41 43
40 39 36 33 26 21 19 22 25 28 30 30 24 20 19 16 27 27 31 32 23 24 23 25 27 28 31 33 33 33 32 33 33 34 35 35 37 38 37 38 40 41 42 44
42 41 38 37 31 32 33 31 28 25 29 30 25 23 20 25 25 31 31 30 29 28 27 27 29 29 29 32 32 29 29 30 32 34 34 36 37 36 37 38 39 41 44 47
43 44 41 41 33 30 39 28 29 27 29 25 24 20 20 20 24 27 28 31 31 32 33 33 32 31 30 31 31 31 30 31 32 34 35 35 34 35 37 39 41 45 48 50
44 47 43 39 37 42 26 25 25 27 23 24 25 23 20 24 29 27 28 31 30 31 34 34 33 32 31 31 32 32 32 33 34 35 34 34 35 37 39 42 45 48 51 53
45 41 44 44 41 36 28 27 22 24 19 21 25 22 24 28 24 24 25 28 31 31 30 32 32 31 31 30 30 31 32 34 33 33 34 35 37 39 42 46 49 51 53 55
45 44 43 44 42 42 23 24 23 24 20 21 25 24 25 27 24 26 22 27 28 27 27 27 27 27 28 29 30 32 31 30 31 33 34 37 40 43 46 50 52 54 56 58
52 48 45 43 44 39 25 24 24 33 11 26 25 25 26 27 26 25 24 26 26 26 25 25 25 27 28 30 30 29 30 32 33 35 38 42 45 48 51 53 54 56 59 61
48 49 49 44 44 43 31 20 27 25 27 33 33 30 29 29 27 27 25 25 25 25 25 25 27 28 29 28 29 31 33 35 37 41 44 47 50 52 53 55 56 58 59 59
52 46 49 47 45 38 28 25 22 22 30 33 33 33 31 30 30 27 26 24 24 25 26 26 27 27 28 30 33 34 37 40 43 46 49 52 53 54 55 56 58 59 58 59
51 45 44 47 42 37 33 30 28 23 26 30 34 35 32 30 30 29 28 26 25 26 26 27 28 30 33 35 37 40 43 47 49 52 53 54 56 57 58 59 59 59 60 60
49 52 46 47 45 41 42 32 30 31 33 36 37 36 34 33 34 33 31 30 30 30 30 32 34 36 38 41 44 46 49 52 53 54 55 56 58 58 59 60 61 61 62 64
48 49 48 47 46 39 39 37 35 36 35 37 35 34 35 37 37 37 36 36 36 35 35 38 39 42 45 47 48 50 52 54 55 56 57 58 58 59 60 62 63 64 66 70

GFSCGP_500_spd_048.txt.gz
Wind_Speed
15 13 13 12 8 6 15 15 11 20 18 17 10 6 22 15 21 16 7 11 11 12 13 11 11 9 10 14 16 16 15 13 15 14 12 11 8 5 4 3 5 7 8 12
16 12 10 7 9 12 21 20 9 12 18 15 11 10 22 18 17 16 11 9 9 8 8 9 7 8 7 7 9 10 11 9 9 8 8 7 4 3 2 4 8 10 14 17
15 10 10 5 6 6 6 13 19 20 14 13 14 5 15 15 22 19 18 10 7 5 2 4 2 4 3 5 7 8 8 9 8 7 7 6 7 8 9 9 10 14 16 16
17 14 14 10 9 7 3 9 14 19 21 13 14 18 10 8 13 19 13 14 10 7 4 3 1 1 3 3 3 5 7 8 8 8 7 8 10 10 12 14 15 15 16 19
16 16 15 14 11 10 9 15 18 12 22 16 13 2 8 8 10 13 16 18 11 7 6 6 8 8 7 5 4 5 5 7 8 10 10 11 10 10 12 16 18 20 26 25
24 19 18 14 17 14 13 11 12 9 10 13 7 12 21 15 14 8 23 17 18 8 8 10 10 10 9 9 9 10 10 11 11 12 12 13 12 12 14 17 17 29 34 34
28 23 20 21 19 19 15 11 7 8 9 2 9 12 15 16 8 5 16 20 19 15 12 15 14 11 9 9 10 12 13 14 14 12 15 17 11 24 18 18 23 22 30 31
28 28 21 21 20 18 19 15 14 14 17 15 16 9 12 18 8 9 14 16 21 21 20 15 16 12 12 9 9 11 13 15 16 16 13 16 17 16 16 20 27 27 28 18
32 26 20 23 23 23 21 22 14 21 18 12 13 7 11 22 22 17 19 21 18 20 27 26 22 20 17 14 12 12 14 15 17 16 15 23 22 11 15 19 25 31 25 25
28 17 22 22 27 27 27 20 21 24 22 18 14 10 19 22 23 22 17 19 22 22 20 22 25 23 23 24 19 13 14 20 22 20 17 22 24 17 19 23 27 31 31 29
37 30 25 31 30 28 30 29 26 24 22 22 20 15 21 12 10 16 20 21 18 20 20 22 22 21 20 27 33 24 23 22 25 24 23 27 29 28 27 29 30 32 30 33
40 33 32 30 32 25 30 30 31 32 24 24 24 23 20 21 17 19 27 24 23 18 22 17 21 25 25 25 27 29 30 30 30 29 28 28 31 33 33 35 33 32 33 35
42 44 36 33 35 28 31 32 34 35 29 32 31 22 26 25 24 21 25 25 26 21 18 23 20 24 26 27 30 33 33 34 35 35 34 33 32 37 35 35 34 36 37 37
42 45 43 39 30 24 30 29 29 24 28 28 30 30 29 20 25 15 19 22 29 30 22 23 27 24 26 27 30 34 36 38 40 42 42 39 40 39 36 35 36 38 39 38
44 52 44 42 35 25 25 21 33 33 34 37 34 30 24 13 24 25 29 22 30 32 23 26 29 28 27 28 30 32 35 38 38 38 34 34 35 34 35 37 39 39 39 40
48 53 45 45 40 34 34 31 26 26 22 26 23 25 19 21 27 22 28 33 30 25 28 25 30 35 28 29 29 30 31 35 36 34 32 34 36 36 37 37 38 38 38 39
46 48 44 46 42 41 42 33 29 28 28 27 27 29 29 28 28 32 35 31 24 26 27 29 33 37 36 33 32 32 32 33 33 30 30 32 34 34 34 35 35 36 38 41
55 50 54 51 43 50 43 42 40 46 36 35 34 31 28 31 34 33 31 23 28 26 28 29 32 35 35 35 34 34 33 33 32 33 34 34 34 34 34 35 37 40 43 46
51 53 56 55 53 46 45 38 40 33 32 31 31 32 29 27 29 32 23 25 29 27 30 30 30 33 33 33 33 32 33 32 33 34 35 36 36 36 37 39 41 44 47 51
56 50 50 50 53 50 43 38 36 34 38 21 27 28 26 27 37 24 28 25 28 30 29 29 30 30 31 30 31 31 32 34 35 36 36 35 36 38 39 42 45 49 53 55
51 47 49 49 44 43 43 32 33 36 21 23 27 23 29 36 31 29 30 30 30 30 30 30 28 29 29 31 31 31 32 34 35 35 35 37 39 41 43 47 51 54 57 58
48 50 44 48 49 47 38 37 39 30 20 28 29 29 33 34 33 31 32 32 32 33 32 30 28 28 30 30 31 31 33 33 34 35 38 41 43 46 50 53 56 58 58 59
45 51 49 48 48 45 39 37 30 24 25 28 34 34 39 44 37 34 32 34 34 33 32 31 30 30 30 31 32 32 32 35 38 40 43 45 49 52 55 58 59 60 61 62
44 47 39 41 48 48 45 38 37 37 36 28 30 41 38 47 41 37 35 35 35 34 33 33 33 33 33 33 33 34 38 40 42 45 48 51 54 57 60 60 61 62 63 62
41 49 49 32 32 26 42 42 45 40 44 39 35 38 38 41 38 39 40 39 38 38 37 36 36 38 38 38 40 43 45 47 49 50 53 55 58 60 61 62 63 64 66 65
38 42 49 55 50 43 42 39 29 39 45 40 40 44 42 44 39 38 41 41 41 42 40 39 40 42 43 44 46 49 52 52 53 56 57 58 60 60 61 60 61 66 69 70

GFSCGP_500_spd_051.txt.gz
Wind_Speed
23 17 10 12 12 13 14 5 9 5 15 14 17 17 9 9 14 17 18 14 14 13 12 15 15 16 18 20 20 18 19 22 23 19 16 17 17 14 14 12 9 10 11 12
21 9 15 13 12 11 5 10 9 15 14 15 16 15 13 15 15 9 17 13 13 11 11 10 12 9 11 13 16 18 18 19 15 15 12 15 13 12 9 6 2 3 8 11
23 14 17 16 11 6 6 9 14 21 19 19 13 16 16 16 18 12 12 12 10 8 7 6 7 6 8 11 13 14 14 14 12 11 11 10 11 10 8 6 1 5 9 13
19 23 20 19 9 10 10 8 21 26 24 25 20 12 17 17 10 9 11 13 10 7 6 5 7 6 7 8 8 9 10 11 12 11 10 9 7 5 2 2 2 4 7 10
13 22 21 18 11 15 11 12 15 18 17 23 20 15 9 17 15 19 12 10 8 5 4 7 7 7 7 6 4 4 5 6 5 5 6 6 3 2 4 4 8 11 11 14
20 23 26 23 17 18 17 14 12 12 12 12 10 12 14 16 16 19 12 7 9 2 2 4 5 4 4 4 2 1 1 1 1 2 3 4 6 7 3 10 8 8 8 16
21 24 26 26 21 20 21 17 12 13 15 9 16 17 13 15 11 9 10 7 8 4 5 6 5 4 5 4 7 6 5 6 6 7 8 9 9 9 12 10 12 14 13 18
30 27 22 25 22 20 22 21 18 12 14 15 12 8 17 13 9 12 16 17 11 11 2 5 7 8 7 9 9 10 10 9 7 7 8 8 12 13 12 13 13 15 17 17
28 26 22 30 26 20 23 25 14 20 16 15 14 12 19 18 16 14 16 19 23 20 17 16 15 16 15 13 13 12 11 11 8 7 8 10 13 10 8 14 15 18 19 20
28 28 28 25 23 27 28 22 21 26 25 21 14 13 14 14 22 19 18 17 15 21 23 19 18 16 17 15 16 18 12 14 16 15 10 13 17 16 18 16 18 23 24 26
30 31 32 38 36 29 27 32 31 29 28 27 18 20 23 19 22 23 13 10 12 11 18 22 23 20 17 19 21 19 32 28 18 20 17 21 25 25 20 27 16 26 27 29
31 32 35 36 37 30 30 26 32 32 28 30 27 27 25 24 24 20 21 21 21 18 14 15 20 25 25 23 25 23 23 20 23 25 21 21 29 41 22 21 26 27 29 28
34 36 42 40 43 36 38 31 32 37 30 36 33 23 25 25 21 23 25 24 26 26 24 18 15 17 21 28 28 25 25 26 26 23 18 20 23 30 32 36 34 34 29 30
34 36 44 45 41 36 37 28 33 39 39 33 35 29 26 28 23 21 26 26 22 25 29 22 19 16 19 22 29 31 28 29 30 27 30 32 33 35 36 34 33 30 31 32
41 44 41 45 44 44 35 33 29 35 33 39 29 31 27 28 30 31 28 27 29 28 24 28 23 20 16 20 24 29 32 34 34 34 33 35 36 38 37 34 33 35 35 36
44 47 41 44 50 45 40 35 36 32 31 34 32 33 28 22 24 27 31 29 27 25 28 23 27 24 19 16 21 27 31 33 33 33 33 34 35 34 35 34 35 35 35 36
48 51 47 46 47 50 50 48 37 35 30 35 34 30 24 27 22 33 27 34 33 32 26 20 27 31 29 24 24 28 30 32 32 33 33 33 31 31 31 34 34 36 37 36
46 46 50 48 46 53 48 50 43 36 35 33 36 34 29 28 25 32 38 37 39 37 24 25 27 32 30 29 28 28 31 33 32 31 32 32 31 31 32 33 35 34 35 37
32 41 49 49 50 51 50 48 50 44 39 42 39 38 31 36 33 33 38 41 41 36 29 30 29 29 29 30 30 30 29 30 31 32 32 32 35 34 35 36 36 37 38 41
38 45 41 46 51 50 48 46 49 48 51 43 38 35 41 43 46 44 42 38 36 32 29 29 30 29 30 30 29 28 29 31 32 33 34 35 36 38 38 37 38 40 43 47
55 41 49 47 51 49 47 46 41 53 47 38 32 35 35 42 40 42 45 40 33 34 32 31 32 32 32 31 30 28 28 30 33 34 35 37 38 39 39 40 42 45 48 51
39 62 50 46 45 44 45 40 41 48 34 32 26 31 40 40 40 40 39 38 37 35 36 37 37 35 35 34 33 30 30 30 33 36 38 39 39 40 42 45 47 50 53 57
24 36 43 54 56 49 39 42 45 35 42 35 37 42 43 41 36 35 37 39 37 37 38 39 39 38 37 36 35 34 32 33 36 38 39 39 41 44 47 50 52 55 59 61
42 27 33 44 50 50 44 43 40 38 39 41 44 44 43 45 43 42 49 41 37 39 41 41 40 40 40 39 37 37 37 38 38 39 40 43 46 50 52 54 57 61 63 63
55 49 36 36 37 48 37 42 47 47 40 43 51 47 45 47 43 46 51 38 37 39 43 47 46 43 43 42 40 40 41 42 43 44 45 48 53 55 57 58 62 64 62 64
43 50 44 37 42 45 45 39 42 45 44 40 53 53 47 50 49 47 42 42 41 42 43 44 45 46 46 45 44 44 44 46 47 48 51 54 57 59 62 64 65 64 64 68

GFSCGP_500_spd_054.txt.gz
Wind_Speed
21 15 10 20 16 16 15 18 22 17 3 10 9 5 11 5 10 8 6 5 8 12 10 11 12 15 20 22 15 13 14 12 7 10 16 19 14 16 15 21 23 20 21 18
21 8 17 20 18 16 13 16 16 18 6 11 13 11 9 5 8 5 6 4 7 11 8 10 11 10 12 18 20 20 21 22 18 19 19 19 16 17 15 14 15 18 18 17
20 18 24 20 21 17 14 15 19 12 16 19 18 13 10 7 6 7 5 4 7 9 6 5 6 8 9 12 15 17 17 17 17 17 17 16 15 16 14 12 12 12 14 16
22 23 24 23 20 18 17 14 14 22 23 22 20 24 13 11 5 4 3 3 3 9 8 6 6 6 8 10 10 14 15 16 15 15 14 14 12 12 11 9 6 6 6 8
15 23 20 22 18 21 18 15 16 18 24 21 15 23 15 17 1 7 6 5 3 4 9 6 5 4 5 7 9 10 11 12 12 11 11 9 8 6 5 5 3 2 5 5
27 25 27 22 26 23 22 18 17 19 17 14 9 24 18 13 8 4 6 6 3 5 6 3 4 2 2 2 3 4 6 7 6 6 7 8 6 2 5 3 3 6 5 6
24 25 25 25 24 27 26 23 20 21 18 11 12 17 11 15 13 2 7 3 3 1 1 2 6 5 2 3 2 2 3 4 6 6 6 5 5 7 6 7 8 12 12 11
32 31 26 21 25 27 27 27 22 21 18 15 17 13 12 15 15 9 9 5 2 5 3 2 5 9 10 9 7 6 7 7 8 7 7 8 12 9 10 11 11 12 13 14
33 31 26 28 25 32 25 28 21 26 24 21 20 18 19 18 17 16 15 7 3 4 6 5 4 7 10 12 12 12 10 10 9 12 12 12 14 16 13 17 18 16 16 16
30 33 29 32 32 36 31 22 28 31 29 26 22 17 17 18 16 15 15 18 12 4 3 6 7 8 10 11 13 16 16 17 19 20 17 16 17 17 18 18 19 19 23 17
30 33 29 34 38 36 34 33 33 31 33 30 27 22 19 19 21 17 16 13 8 8 7 7 8 7 9 11 13 17 19 23 26 29 29 20 22 24 24 25 27 21 23 24
33 35 31 34 36 35 39 36 29 34 35 31 30 26 22 22 23 23 19 16 17 18 17 14 13 12 13 14 12 12 16 18 22 21 17 18 26 27 26 37 31 25 17 26
37 41 38 38 37 43 43 39 34 33 32 36 35 27 25 24 25 26 28 25 23 22 20 19 18 19 18 18 18 17 16 15 19 20 18 20 17 26 26 21 23 25 20 24
42 44 41 35 33 40 43 41 39 33 35 35 38 26 29 29 26 23 27 22 21 23 23 19 17 20 24 23 21 21 22 20 21 22 25 23 25 29 28 25 24 29 27 27
44 47 44 40 34 44 45 43 43 41 37 40 32 32 29 33 28 30 32 36 30 26 25 26 24 25 25 26 26 26 25 24 26 25 25 26 27 28 28 27 27 28 28 30
45 44 45 43 34 45 51 45 43 44 40 41 31 34 29 36 33 31 33 36 38 33 34 27 19 19 28 20 17 20 26 30 30 30 29 29 31 31 30 29 29 30 32 33
46 47 46 49 42 38 53 51 50 46 45 41 38 34 30 33 34 31 32 34 35 30 32 31 32 28 25 23 23 24 26 31 32 32 32 32 32 32 30 28 29 32 35 35
32 44 47 45 45 48 41 47 49 51 47 43 37 35 31 34 37 40 40 35 32 36 37 35 29 23 25 26 26 26 26 28 31 32 32 32 33 33 32 33 34 35 36 37
56 47 49 49 53 51 52 48 46 49 48 42 43 41 37 34 34 36 34 29 34 36 36 35 34 31 28 26 24 25 26 27 28 28 29 29 29 32 35 36 36 38 40 41
62 55 53 27 51 56 48 50 45 49 52 49 51 42 43 40 40 39 39 36 37 43 44 39 37 32 30 29 29 28 29 30 29 28 30 31 32 34 37 38 39 40 42 43
60 59 52 38 35 49 49 49 47 50 46 50 52 53 45 37 40 40 41 44 42 47 48 43 34 36 35 34 32 33 33 33 33 34 33 34 37 39 39 40 42 43 43 45
57 58 50 40 43 47 41 42 43 45 47 43 48 51 52 46 46 46 44 42 46 50 52 42 38 38 37 37 38 39 38 37 38 39 39 38 40 40 42 44 45 45 46 49
59 56 52 36 26 46 48 41 37 34 39 40 39 46 50 49 46 44 44 45 45 49 43 41 40 41 40 39 40 40 40 41 41 42 43 42 42 44 46 47 47 48 51 53
45 57 55 33 14 25 28 41 38 34 33 37 39 38 48 48 52 50 45 41 39 42 40 41 43 46 43 43 43 43 43 43 43 43 44 44 45 46 47 49 52 55 57 58
39 45 61 55 24 17 18 30 44 38 37 34 34 35 33 42 51 54 52 51 46 47 45 39 39 38 39 41 43 44 45 46 47 47 47 47 47 49 52 54 57 59 61 63
27 33 46 64 47 39 33 30 31 39 48 49 48 46 47 43 44 52 56 55 51 50 50 48 51 46 44 47 45 44 44 45 49 51 51 51 52 54 56 59 60 63 66 67

GFSCGP_500_spd_057.txt.gz
Wind_Speed
22 21 14 16 24 26 21 20 20 20 19 22 22 12 8 4 6 5 3 3 2 2 2 7 9 13 2 13 17 19 18 22 27 27 27 30 30 24 25 25 27 27 24 24
26 14 19 25 23 25 21 20 16 21 22 21 20 8 6 7 6 4 5 1 1 0 2 6 10 9 12 10 12 11 9 14 22 26 27 25 25 22 26 27 25 17 18 18
26 20 25 27 23 25 21 19 16 21 26 27 22 10 7 5 3 1 1 1 3 5 4 1 6 7 8 10 14 15 15 15 16 17 20 20 17 16 17 16 16 17 17 20
32 25 29 27 25 24 21 18 20 22 25 25 17 11 12 10 8 3 1 2 1 4 5 5 4 6 8 10 11 8 8 12 15 16 16 17 19 17 14 14 15 15 18 19
25 24 28 30 22 28 16 25 22 24 21 21 18 17 12 13 7 8 7 5 3 2 3 3 5 5 5 8 10 11 11 11 13 14 15 16 15 13 13 15 14 15 17 18
33 30 35 30 28 31 23 29 26 27 20 13 14 14 5 12 11 8 7 10 7 6 5 1 4 6 4 5 7 9 9 8 9 11 12 13 14 14 14 15 16 18 17 16
32 37 36 34 27 31 29 29 30 31 23 8 19 19 4 14 15 11 12 11 7 7 6 4 2 6 4 2 3 4 7 7 8 10 12 13 13 11 14 13 13 14 13 14
35 35 34 32 26 27 29 32 33 32 24 16 24 21 10 17 12 12 13 11 9 7 7 5 6 3 3 4 5 5 4 6 8 8 9 9 10 12 13 13 13 13 15 15
35 35 32 34 29 31 30 33 28 34 31 26 25 23 16 17 11 13 16 11 9 7 8 8 9 9 6 6 8 7 9 9 9 11 13 15 15 15 16 15 16 17 17 18
36 36 33 31 35 36 36 30 32 36 37 30 27 25 19 23 19 14 13 17 11 13 10 9 9 10 9 8 11 10 11 12 14 14 15 18 21 18 17 19 19 21 20 24
32 36 35 37 42 40 38 36 36 36 39 35 30 27 25 23 23 17 15 14 11 14 10 9 7 10 10 11 9 12 15 18 18 18 19 20 27 26 25 26 29 31 32 30
38 37 31 38 38 41 41 40 39 43 40 34 32 21 25 27 23 25 23 18 12 13 13 12 11 13 14 15 14 12 14 17 20 22 21 24 22 26 27 29 25 33 30 36
43 43 38 38 39 44 45 45 41 43 43 39 37 25 25 27 29 27 25 22 20 22 22 24 16 15 19 19 19 20 19 19 21 22 22 23 18 21 22 21 22 29 27 18
42 41 41 38 38 39 40 40 41 42 45 42 39 30 28 28 31 28 24 23 22 26 24 22 23 17 16 19 21 22 25 24 22 22 23 22 23 25 25 27 23 24 28 25
46 45 46 44 37 40 42 43 42 43 43 44 35 36 29 29 31 27 26 28 30 28 31 29 28 22 21 24 25 24 24 24 23 23 24 23 25 26 27 24 26 27 28 29
43 47 47 44 44 40 44 45 45 44 44 48 48 45 36 30 33 36 32 34 38 35 36 34 32 30 26 23 24 23 21 23 27 26 26 28 30 30 30 28 27 28 30 30
54 47 46 47 45 45 46 45 45 48 45 46 50 43 41 36 35 38 36 38 38 36 31 32 28 26 24 30 30 31 25 24 26 28 26 29 32 33 33 31 30 32 32 33
51 50 48 48 48 47 42 45 39 47 49 49 48 46 41 38 36 40 39 40 39 35 35 36 31 31 32 31 37 30 26 26 27 28 27 27 30 31 32 34 35 35 35 37
52 52 52 44 45 47 42 46 42 41 46 50 50 48 45 46 42 41 36 41 39 35 36 34 31 33 33 27 27 29 29 29 28 27 30 31 31 31 32 33 35 34 36 36
43 58 62 58 53 42 46 43 43 46 48 42 43 52 54 52 48 42 35 40 40 36 35 36 34 37 36 35 33 33 33 31 30 30 32 33 33 34 35 36 37 39 40 41
35 40 57 58 60 54 39 32 37 49 45 45 49 51 53 53 48 42 41 45 46 43 38 40 42 43 42 39 36 37 37 35 36 34 36 37 36 38 39 40 42 43 43 46
29 34 36 54 63 61 52 43 42 34 38 43 43 44 52 53 52 51 50 47 45 45 45 44 45 43 41 41 39 40 41 40 40 39 39 40 41 42 42 42 43 45 47 48
33 32 37 41 47 62 64 43 39 32 26 35 41 50 49 49 52 51 47 52 54 48 46 45 44 46 44 41 40 38 40 43 43 42 42 42 43 45 46 45 46 48 50 52
37 39 40 45 38 50 54 60 38 33 25 29 35 35 42 43 47 44 45 46 49 49 47 48 44 41 41 39 41 42 39 40 43 44 45 46 47 47 48 50 50 51 53 56
41 42 40 41 42 40 46 47 38 11 37 37 35 35 35 36 38 39 37 43 47 47 45 48 49 48 45 44 45 43 39 43 47 47 49 49 48 50 52 54 55 57 58 61
45 43 42 40 41 31 37 48 24 17 17 23 40 37 36 38 35 31 35 36 42 48 51 52 53 57 52 49 49 52 51 46 48 54 52 52 53 53 54 56 58 60 61 64

GFSCGP_500_spd_063.txt.gz
Wind_Speed
33 32 23 22 23 27 29 27 21 23 23 20 17 11 13 12 17 21 18 14 14 13 13 13 14 17 18 5 13 14 15 17 15 19 18 19 19 18 21 21 18 21 23 24
40 28 24 29 29 29 31 26 20 23 25 20 19 12 13 12 14 21 19 15 13 12 12 12 11 12 14 6 9 15 19 20 16 24 22 22 23 23 20 19 20 25 24 28
40 27 31 30 29 31 28 21 23 22 24 23 19 12 14 15 13 19 19 12 10 9 10 9 9 10 8 9 8 3 6 11 18 23 24 23 25 21 23 23 25 27 24 29
43 36 35 33 31 33 26 22 26 23 24 25 21 10 11 17 17 17 17 12 9 8 8 6 4 5 4 3 3 4 4 3 4 18 24 22 23 28 29 29 28 31 28 30
42 35 35 35 26 31 28 26 29 28 26 23 19 15 5 16 16 18 17 16 9 6 7 4 5 2 4 4 3 2 1 1 2 6 7 20 22 20 16 19 29 32 32 28
43 40 43 34 31 31 33 32 32 31 26 24 15 16 4 10 18 22 17 11 14 10 7 6 4 5 4 5 5 4 2 1 1 2 3 6 9 10 10 10 7 8 12 13
44 43 42 38 37 39 37 35 35 33 27 21 18 16 7 8 18 21 19 18 12 15 12 10 7 6 5 6 7 6 5 5 3 2 3 4 5 6 8 10 12 12 14 15
41 43 44 41 38 35 33 35 35 31 31 24 27 12 7 11 12 21 15 15 12 12 10 11 9 9 8 8 8 8 8 6 6 6 5 6 7 8 9 10 12 13 13 16
38 38 41 39 38 36 37 41 31 34 34 29 30 19 12 15 13 20 17 17 14 13 13 14 13 12 11 13 13 11 9 9 9 8 8 8 8 9 11 12 14 15 17 19
32 33 39 39 38 41 44 39 37 41 36 31 31 24 10 15 18 16 19 19 19 18 17 18 16 16 17 17 17 15 14 13 11 11 12 12 12 12 12 12 15 19 21 22
40 41 39 40 44 40 41 43 42 40 37 35 32 26 11 15 21 18 21 19 21 23 23 20 21 18 20 16 16 14 14 14 14 15 15 15 15 14 15 15 18 20 23 25
33 38 40 40 40 41 44 43 40 41 42 39 33 30 17 14 19 21 23 24 22 22 24 22 21 20 18 14 13 15 17 18 18 18 19 17 19 20 19 21 23 23 30 30
31 36 34 35 38 38 42 42 41 40 40 40 37 33 19 19 18 20 25 24 20 25 20 21 20 21 17 17 19 19 20 23 23 21 20 22 22 22 21 22 20 19 20 21
29 30 29 32 33 35 38 38 37 38 40 40 40 36 29 24 23 22 24 28 29 29 25 22 22 25 25 24 23 26 24 23 24 25 23 23 26 26 25 26 26 25 25 28
31 33 34 32 30 33 31 32 37 37 38 41 39 41 34 30 28 24 25 30 33 35 33 30 29 32 32 30 26 28 31 27 27 26 26 23 23 27 28 27 27 29 28 29
39 33 36 35 36 33 31 30 31 34 35 36 38 40 36 33 32 28 26 28 29 30 32 33 35 32 33 33 30 30 33 34 32 27 25 28 26 27 27 28 31 31 32 32
37 38 34 37 39 38 38 36 35 34 36 38 39 37 33 35 32 33 26 29 29 29 29 30 34 35 35 33 32 32 30 33 35 34 27 28 30 30 32 32 31 31 32 33
48 40 38 36 36 37 37 36 35 35 35 36 36 37 36 35 33 32 33 30 33 32 35 31 29 29 31 33 30 29 28 29 29 31 33 34 36 35 35 34 33 32 32 33
49 51 52 46 36 37 37 38 38 37 35 37 37 38 38 39 37 31 31 37 36 36 32 33 29 27 28 28 30 35 28 28 30 28 27 28 36 39 36 37 36 34 33 33
49 51 51 52 51 50 43 41 36 35 33 31 37 41 43 44 43 38 33 35 39 40 33 33 37 30 29 27 30 33 30 29 31 32 33 34 35 38 39 39 38 37 37 36
36 41 47 51 51 47 45 43 42 43 48 51 46 42 44 45 47 41 36 35 39 42 40 41 35 30 32 35 35 39 39 35 36 36 37 40 36 35 38 38 42 40 41 41
23 22 25 31 38 44 45 50 50 49 52 52 51 50 46 41 44 44 39 37 37 41 40 38 38 42 40 40 43 41 45 42 43 42 43 42 41 40 41 39 41 42 43 42
22 22 20 17 17 23 23 24 28 26 27 35 45 48 56 50 48 46 43 44 44 40 40 44 43 44 44 43 45 41 40 44 46 45 44 45 43 47 46 44 41 39 39 39
24 23 22 19 19 22 22 22 24 25 25 27 31 34 36 52 48 46 41 46 48 46 45 45 45 42 46 48 49 48 48 46 48 47 49 50 50 48 45 44 43 45 47 50
29 28 27 26 26 25 25 26 27 28 26 28 33 35 37 34 42 56 50 45 42 45 46 46 48 46 45 49 45 43 41 41 44 49 52 50 51 48 48 48 49 49 49 45
30 30 32 33 32 32 30 30 32 33 33 33 34 37 38 37 37 40 49 52 49 48 38 38 38 39 44 46 41 35 46 44 50 46 51 48 51 50 56 55 52 51 49 51

GFSCGP_500_spd_066.txt.gz
Wind_Speed
43 41 35 25 26 25 25 24 26 24 26 20 19 14 16 16 18 21 18 16 19 19 15 14 14 14 16 8 9 15 13 16 12 20 19 21 18 22 22 22 25 28 27 25
47 44 29 34 30 28 28 26 24 24 24 19 20 11 16 17 17 21 18 16 19 17 12 11 12 11 11 10 4 13 15 13 15 17 20 22 21 26 14 25 19 24 25 23
47 36 35 35 33 30 26 27 23 24 24 21 19 15 14 18 18 22 18 15 17 15 9 8 9 9 7 8 5 7 13 17 21 19 24 21 22 23 25 20 21 22 23 27
44 39 40 39 35 30 27 27 26 27 28 22 17 14 10 16 20 20 19 15 14 12 10 7 7 7 5 4 3 2 7 10 14 19 24 26 24 26 27 26 23 23 26 30
51 42 41 39 28 32 24 32 30 32 29 24 20 17 10 18 16 18 22 14 13 10 11 8 6 5 6 4 4 2 2 4 4 2 20 28 28 25 26 24 27 29 28 26
51 47 45 40 34 33 35 33 32 35 30 24 19 17 10 16 14 19 22 14 10 10 14 13 8 4 4 5 5 4 2 4 2 2 5 8 19 24 27 26 27 29 34 34
52 51 47 44 41 38 39 34 33 36 33 23 22 15 13 13 12 17 21 18 14 12 13 11 11 8 5 4 4 4 5 4 4 2 3 6 6 9 13 13 8 7 13 21
48 50 51 45 42 36 33 32 34 34 30 28 28 15 13 19 19 15 18 20 17 15 12 10 9 9 8 7 6 5 5 6 5 5 5 5 8 10 10 10 10 12 12 13
44 44 47 49 41 37 37 43 33 36 38 34 32 21 18 18 19 15 18 20 19 15 15 13 11 10 9 11 12 10 9 8 8 8 8 8 10 9 11 10 12 12 13 13
40 38 43 43 44 42 43 42 40 40 40 37 31 23 17 15 20 18 20 24 22 19 19 17 14 14 12 14 15 15 13 13 12 12 13 13 12 11 11 12 13 14 16 18
38 42 37 42 46 46 47 46 45 43 41 34 28 28 16 17 20 19 20 25 25 21 22 21 19 17 18 15 14 15 13 13 12 12 13 13 14 13 14 13 15 15 15 19
31 36 37 34 42 40 41 42 43 44 43 39 36 30 24 16 18 23 23 25 26 24 23 25 25 21 19 19 16 13 11 13 15 16 15 15 15 13 14 19 20 21 22 19
30 32 33 38 40 43 43 45 44 43 42 44 39 34 28 22 18 23 26 27 29 28 26 25 25 26 22 20 20 18 16 18 19 18 21 22 20 20 19 20 22 22 21 21
24 30 32 33 38 40 39 37 39 40 41 39 37 33 26 26 25 24 28 30 30 30 29 30 29 28 26 24 24 24 22 22 23 24 25 23 25 26 25 25 25 25 26 27
27 22 27 36 34 34 34 34 33 35 36 35 35 36 30 28 29 29 28 32 35 33 32 31 33 32 30 30 31 32 30 31 29 27 25 26 28 28 27 26 26 28 29 30
20 23 22 25 27 29 28 27 25 27 30 34 33 32 31 26 28 30 31 37 38 36 36 35 35 34 33 35 35 38 36 33 33 32 31 32 30 32 32 31 28 27 29 32
34 28 27 25 25 26 27 24 24 24 25 27 28 30 26 26 27 26 27 26 40 37 38 39 41 40 39 39 38 38 37 37 37 38 35 33 33 30 31 33 32 31 32 35
36 35 31 29 26 26 29 28 29 29 26 27 30 31 31 29 28 30 29 26 26 28 39 39 39 40 39 40 42 40 41 40 37 39 39 37 30 32 37 39 39 39 38 35
43 36 40 32 37 33 29 29 29 30 30 31 33 33 31 30 32 32 30 29 27 28 29 35 35 38 39 41 41 43 45 43 38 38 38 36 37 37 38 36 36 41 43 43
45 45 43 46 43 36 35 30 28 30 34 35 36 36 37 36 35 38 37 35 34 35 34 34 34 35 35 36 37 41 41 44 43 41 40 39 39 39 40 39 38 43 42 45
44 44 45 44 46 45 42 44 40 36 35 36 39 41 39 37 37 36 40 41 38 38 40 38 32 37 37 36 41 38 34 35 39 43 42 42 44 46 47 46 42 38 38 40
30 34 38 41 43 47 47 48 49 49 46 46 46 48 48 48 48 50 47 40 39 39 40 42 40 38 38 42 43 41 39 36 41 45 47 49 48 49 51 53 53 49 47 45
21 23 23 24 26 29 29 29 32 37 42 45 47 50 49 44 43 47 53 49 46 44 41 43 42 41 42 44 42 43 45 45 47 46 52 50 54 55 56 56 58 55 55 49
23 21 23 21 21 22 17 15 15 16 18 20 20 22 26 29 30 33 35 37 45 53 50 48 44 45 45 46 48 47 48 50 50 50 50 52 52 55 57 59 58 57 58 58
23 21 21 22 22 22 21 20 20 19 18 20 20 19 21 23 27 31 33 36 37 40 50 51 47 44 50 50 51 52 52 52 54 52 50 51 52 57 58 59 61 60 61 59
25 24 25 25 26 28 28 26 27 26 26 25 27 28 29 28 30 32 35 37 36 38 39 48 54 48 46 51 53 57 60 58 53 51 49 49 49 52 54 55 59 65 60 57

GFSCGP_500_spd_069.txt.gz
Wind_Speed
52 50 47 42 37 33 31 22 22 23 19 22 18 17 19 18 24 20 21 20 18 14 15 16 14 11 11 13 11 10 12 12 11 17 12 17 19 23 31 32 30 30 27 29
53 52 45 40 41 36 31 29 29 25 26 21 20 20 18 19 19 24 23 21 17 11 10 13 13 10 9 9 6 5 11 9 12 13 16 18 20 16 18 25 30 29 29 27
55 55 48 45 44 39 33 29 26 26 22 20 19 22 18 20 21 24 23 23 16 11 9 11 11 8 6 8 7 2 6 10 13 14 13 14 15 15 17 17 16 18 21 21
53 58 53 50 45 39 34 27 29 29 29 24 20 20 13 15 17 26 24 22 15 8 5 10 11 8 5 4 5 5 3 3 11 16 18 17 21 22 22 24 20 21 17 19
48 50 52 49 45 38 28 31 35 31 31 28 21 21 12 14 18 21 20 22 15 9 4 5 9 11 6 2 2 3 2 2 3 4 12 21 25 25 23 22 23 23 20 21
41 57 56 50 46 41 33 38 36 32 31 34 19 18 13 10 18 23 17 18 13 10 8 7 7 7 7 5 2 2 3 1 2 5 8 14 25 27 25 25 22 25 27 26
40 51 47 50 48 43 41 41 35 33 35 31 19 18 14 12 22 20 17 15 14 11 8 11 9 6 6 3 2 0 2 4 4 3 3 3 7 20 23 26 26 20 18 24
43 47 54 50 48 46 44 42 33 32 29 23 19 21 17 18 26 22 15 17 16 17 16 14 12 7 6 5 2 2 2 2 4 6 6 5 5 5 8 10 13 13 10 8
43 44 50 53 52 50 43 45 36 26 21 22 22 22 23 17 21 22 21 18 17 16 17 15 12 10 8 6 6 7 7 5 4 6 7 7 8 9 11 12 13 14 13 13
37 38 44 46 51 52 49 40 39 39 33 32 20 11 18 21 22 23 20 24 20 18 17 18 16 14 12 11 8 10 11 11 11 9 8 9 11 10 11 13 14 15 14 14
23 41 21 43 49 50 49 47 45 39 39 26 24 19 23 27 23 22 27 24 20 22 21 21 21 19 16 14 14 13 13 11 9 10 8 8 10 11 13 16 17 16 16 16
22 38 24 21 38 40 45 45 43 42 29 35 27 24 27 24 20 24 27 23 23 25 26 24 23 23 22 22 19 19 17 15 14 13 13 11 10 11 14 17 20 20 19 21
24 28 37 19 32 36 44 46 36 38 37 28 31 33 30 30 26 21 23 21 23 28 29 28 26 25 26 25 23 21 20 19 17 16 18 18 17 17 18 19 19 21 21 21
21 23 31 34 18 26 40 41 37 35 39 40 35 27 31 36 32 27 31 32 27 29 33 32 30 29 29 27 26 24 22 25 24 22 21 22 24 24 26 25 25 25 25 25
21 18 23 36 37 35 23 30 32 34 36 35 36 38 33 35 32 32 30 28 31 33 34 36 35 34 32 32 30 28 27 29 30 29 28 25 25 27 26 28 29 30 30 29
25 17 21 19 33 38 39 38 35 34 33 34 34 35 30 29 36 32 30 30 31 39 40 44 41 38 35 35 34 34 32 32 35 34 31 32 31 31 32 33 32 33 34 33
32 29 30 19 17 21 25 22 24 25 28 31 28 28 27 29 26 29 25 26 28 32 42 42 43 42 39 38 39 38 37 38 37 36 34 33 34 34 33 34 36 35 34 35
34 37 32 26 21 19 14 20 16 12 13 17 23 24 24 22 22 23 25 25 25 26 29 45 47 45 45 44 44 43 43 43 42 42 41 41 39 36 36 34 34 35 35 36
36 34 31 27 33 22 23 15 16 16 21 22 23 23 22 24 26 27 28 27 25 24 23 29 47 46 46 45 44 44 45 46 47 46 45 47 44 44 42 40 36 37 38 39
44 42 36 37 29 27 22 25 24 28 25 25 24 24 25 22 26 34 30 30 32 30 27 27 29 33 50 49 44 44 46 45 49 49 51 51 46 47 44 44 45 45 40 39
43 40 36 36 34 30 32 28 24 29 28 27 33 34 33 31 32 31 33 33 35 36 36 35 33 34 36 36 41 44 44 46 47 51 52 53 55 53 49 48 49 50 51 49
37 40 39 38 38 38 40 40 38 34 35 36 35 34 35 34 36 37 39 40 40 40 42 40 39 39 40 39 41 42 45 46 49 45 48 50 53 54 53 57 56 53 55 57
24 30 36 36 40 39 38 36 35 39 41 42 44 45 45 45 45 45 43 45 46 47 47 48 48 47 44 43 43 44 46 48 49 48 49 50 53 52 55 60 58 60 62 61
20 19 22 20 22 24 25 30 28 32 36 37 39 39 35 32 33 34 33 30 34 36 38 38 38 41 49 50 46 46 49 50 50 48 50 53 55 58 60 64 66 70 69 66
23 23 23 23 21 22 22 20 19 20 21 20 20 20 21 23 22 21 23 24 26 29 32 33 36 39 39 43 50 51 51 54 56 55 56 56 59 59 62 63 64 67 66 67
22 22 23 23 23 21 21 19 20 20 21 22 23 24 26 26 27 27 28 29 30 33 35 36 37 40 40 42 45 49 52 53 51 57 59 59 61 61 63 64 65 66 65 67

GFSCGP_500_spd_072.txt.gz
Wind_Speed
44 46 50 45 41 41 43 38 27 15 15 20 28 19 18 19 21 25 19 17 23 14 16 14 12 11 14 14 18 15 8 10 13 11 6 10 14 25 21 24 28 28 29 26
45 47 44 40 53 45 43 40 37 20 23 19 29 27 21 20 21 22 26 19 19 15 14 11 10 10 9 11 14 13 8 8 8 10 10 7 8 15 21 23 27 29 26 25
37 35 39 48 49 48 44 44 38 31 25 19 30 25 23 19 19 22 20 23 20 17 11 9 7 8 7 7 10 12 8 9 6 6 5 8 8 10 11 15 25 26 26 26
34 29 41 44 55 50 48 45 36 31 30 28 18 23 14 11 15 19 21 20 13 17 10 8 4 5 7 7 6 7 7 5 5 10 11 10 11 13 14 13 12 15 16 19
32 32 38 44 51 50 47 42 32 28 36 32 31 28 13 11 12 18 23 24 10 10 11 8 5 2 5 5 6 6 4 3 1 3 6 10 14 15 17 15 14 18 19 15
30 38 42 43 47 56 52 39 38 37 36 38 29 28 18 9 15 15 20 26 17 11 14 12 8 5 4 3 4 5 5 3 3 3 4 6 9 16 18 18 17 18 18 21
28 35 44 42 44 55 56 41 37 41 42 39 26 29 18 12 17 25 26 24 20 15 16 16 12 8 6 3 3 3 4 5 4 4 3 6 9 4 19 22 21 19 19 18
30 23 41 42 38 50 57 47 44 37 31 29 23 29 17 13 13 20 21 17 17 15 18 17 12 9 7 7 5 4 4 3 3 4 5 4 4 4 2 7 9 13 14 15
26 23 29 39 36 45 53 49 42 18 29 24 27 16 22 24 24 26 22 22 21 18 20 19 14 10 8 8 7 6 7 8 7 5 4 5 5 5 6 8 8 7 10 12
18 18 26 32 33 40 51 42 39 33 25 28 25 23 14 22 21 22 22 23 22 19 21 18 16 13 10 10 11 9 9 10 12 10 8 7 7 8 7 10 13 14 17 17
20 21 17 25 39 39 44 47 48 44 37 23 19 26 23 24 18 18 24 25 23 19 22 21 18 16 15 14 13 15 12 9 10 10 9 9 9 9 10 12 13 14 15 15
22 21 16 23 31 35 41 43 45 42 44 37 38 31 21 20 21 23 25 24 23 24 23 24 22 20 19 19 18 17 18 19 16 13 12 11 10 11 12 14 14 15 17 14
23 22 18 22 26 31 37 38 45 46 37 41 36 38 30 34 24 23 20 25 16 23 24 25 25 25 24 23 22 21 19 18 16 18 16 14 14 14 16 17 16 17 17 18
28 20 15 25 22 24 24 33 47 40 43 35 36 35 31 33 28 24 25 24 28 23 24 27 30 29 28 26 24 23 22 22 19 19 20 21 21 21 23 22 21 21 23 22
32 23 20 27 25 24 22 23 37 44 41 31 35 37 23 30 25 36 39 36 29 31 29 27 31 34 32 31 28 27 27 25 24 23 23 25 26 26 22 21 23 25 26 25
28 28 16 23 24 21 26 25 35 31 27 31 37 37 37 32 35 41 39 34 36 35 37 37 37 35 37 37 35 34 32 31 30 27 26 28 29 28 28 27 29 29 29 29
31 27 19 11 28 27 24 24 34 37 38 35 37 41 41 44 45 46 39 38 36 36 38 39 41 38 40 40 38 37 36 37 34 32 31 31 32 31 29 31 31 29 29 32
33 28 27 13 19 24 29 35 34 35 33 33 32 31 36 35 35 33 32 34 34 35 33 35 39 34 43 43 41 42 41 41 40 37 37 37 37 37 38 37 35 35 34 34
44 31 23 24 24 21 16 12 22 28 24 16 25 33 29 31 30 29 25 25 25 26 27 27 30 33 32 48 49 47 44 44 47 46 44 44 43 43 44 43 45 48 40 41
42 41 34 20 25 26 22 23 14 10 22 29 27 33 28 25 31 33 21 23 26 26 27 25 24 27 28 33 51 50 50 53 53 51 50 49 47 47 49 48 48 48 41 43
40 44 40 33 22 27 23 26 31 33 31 38 32 22 21 24 27 28 26 26 29 30 30 28 30 30 30 32 35 36 35 45 53 51 51 53 50 49 51 54 51 52 55 56
26 38 41 35 32 28 24 24 34 32 23 24 25 27 32 33 33 29 30 34 33 32 31 33 35 34 34 34 36 38 40 43 44 45 45 56 52 52 51 47 58 58 54 54
16 21 29 30 29 25 26 30 34 32 30 31 29 31 36 32 33 35 35 36 37 38 39 40 42 44 44 45 46 46 45 47 49 51 51 54 56 57 60 57 52 52 55 59
8 10 12 17 20 25 28 30 33 31 34 37 40 36 37 40 41 42 41 40 39 36 32 30 32 34 38 39 40 42 48 52 53 54 54 55 56 58 61 62 61 58 61 62
19 21 21 21 15 15 17 21 23 25 30 32 30 28 25 28 28 27 25 25 25 25 24 25 27 28 32 35 37 39 41 44 49 55 58 59 58 59 60 61 62 62 63 66
20 24 20 29 26 25 23 25 25 22 22 21 21 21 21 22 23 24 26 27 28 29 30 31 32 32 33 33 36 39 41 44 47 48 51 58 61 60 61 60 62 64 70 76

GFSCGP_500_spd_075.txt.gz
Wind_Speed
40 42 40 42 42 33 39 43 51 36 29 28 23 22 23 17 27 24 23 14 19 16 10 11 11 12 11 10 12 14 12 6 9 6 3 4 15 27 30 32 37 30 31 23
41 41 37 43 42 40 37 42 43 35 31 27 23 23 22 26 22 24 25 18 18 13 6 12 10 8 7 8 11 12 8 6 6 5 6 5 5 12 23 26 30 27 29 28
38 35 36 40 42 39 35 33 37 34 35 36 23 24 29 25 20 20 23 19 20 16 4 11 10 6 5 6 9 10 9 4 5 5 6 4 3 9 10 22 18 21 23 20
34 31 35 37 38 38 41 35 43 37 42 43 29 28 29 26 25 18 17 18 18 19 3 10 10 6 2 3 7 8 9 7 3 3 5 3 3 7 6 8 11 14 14 19
29 29 30 33 29 37 39 40 48 45 48 43 34 34 26 27 25 20 13 16 17 15 6 11 11 8 3 2 4 7 6 5 4 2 3 4 7 8 9 9 9 11 10 10
27 27 27 28 31 42 37 35 48 47 44 51 37 40 29 22 16 20 16 18 20 9 10 15 13 8 6 5 4 5 5 3 1 1 1 2 3 8 12 13 14 14 13 15
23 25 27 29 31 40 36 36 51 49 47 51 38 43 26 20 20 17 18 17 19 12 10 18 14 12 10 7 6 5 5 4 3 2 2 1 1 1 14 16 17 16 15 14
23 22 25 27 25 35 35 37 38 47 41 46 31 43 14 17 21 15 19 24 21 18 15 19 15 12 13 10 8 6 5 4 4 3 2 3 3 4 5 15 17 17 17 16
22 20 22 17 21 30 34 38 33 47 45 44 38 31 23 22 22 23 20 19 20 24 16 21 18 13 15 11 11 9 7 7 7 6 5 3 1 2 2 5 5 5 6 9
17 16 17 15 14 29 32 33 34 41 38 41 35 32 26 21 22 21 20 22 21 18 15 22 19 17 16 14 12 12 10 8 9 10 9 8 6 4 4 5 7 8 8 10
18 16 13 14 17 24 31 31 35 47 43 37 27 28 26 27 27 30 29 29 17 18 16 17 19 18 18 16 16 15 15 12 10 7 8 7 9 9 9 7 8 9 11 12
24 19 12 14 18 18 26 29 29 45 43 37 26 29 32 33 34 29 33 26 16 18 16 17 20 22 20 20 20 18 16 15 17 14 12 10 9 9 9 8 9 9 10 12
26 22 15 14 21 21 25 35 29 41 47 36 35 22 39 38 22 30 26 24 18 21 25 22 22 24 25 23 21 21 21 18 15 15 14 14 14 13 12 12 13 13 12 13
25 23 20 13 14 20 18 32 37 48 54 45 38 24 30 32 41 33 31 32 25 24 23 22 25 28 29 27 25 24 22 22 21 18 15 17 19 20 19 17 18 18 18 18
27 24 25 18 23 25 17 27 26 45 48 46 42 31 31 34 37 38 37 34 29 25 27 24 23 24 25 29 30 30 27 25 23 21 20 19 22 23 23 22 21 19 18 21
28 28 27 20 23 31 23 29 33 36 46 39 43 45 41 32 37 42 42 38 35 32 29 32 30 30 30 27 28 27 28 29 28 27 27 26 25 24 25 26 26 26 26 26
32 30 28 23 21 23 27 13 23 38 43 40 41 32 43 42 43 41 44 41 37 35 33 35 35 35 33 32 32 31 30 30 29 28 32 33 34 32 31 29 29 29 29 29
33 28 29 23 14 18 26 20 28 24 34 34 39 35 33 30 34 37 36 33 36 35 35 38 40 39 42 41 40 38 34 31 33 33 36 36 36 36 37 37 35 35 35 34
36 32 31 24 21 17 28 25 26 33 27 38 38 39 33 32 29 31 36 40 40 44 40 39 37 39 39 43 42 41 45 41 39 38 39 41 40 40 42 40 39 40 42 41
30 31 32 26 19 19 18 15 23 33 32 32 32 33 36 35 43 40 36 41 41 35 30 25 26 29 29 25 29 35 31 36 44 46 45 46 49 49 49 49 48 46 46 45
15 31 35 33 23 17 21 23 16 21 33 32 33 35 40 43 32 31 33 33 35 32 27 24 26 26 27 29 31 32 32 32 30 43 47 43 42 45 43 47 48 49 47 48
6 17 34 39 29 20 17 19 16 26 32 31 31 27 29 38 39 29 28 30 32 29 26 26 28 30 31 31 32 33 35 37 38 39 41 44 43 44 45 44 46 51 55 56
5 4 12 25 29 26 20 23 18 34 31 26 31 31 30 31 33 30 31 34 34 34 33 35 35 36 36 37 40 42 43 44 44 45 46 47 49 50 49 51 54 54 53 56
4 7 10 13 21 25 28 27 25 26 27 33 30 27 22 24 29 34 37 40 38 37 37 38 40 43 45 46 44 43 42 43 46 49 52 56 58 58 59 59 59 63 64 63
19 15 18 14 17 18 20 23 31 31 33 31 29 30 33 34 34 37 39 42 44 42 43 41 40 36 36 36 37 37 38 39 41 44 46 48 51 54 59 62 63 64 67 68
21 19 17 28 23 25 17 23 19 19 23 29 27 26 30 30 31 33 35 37 36 36 35 33 33 34 35 37 38 39 40 40 42 43 45 48 49 51 53 55 59 62 67 72